CW1648 Weather Reports


time (UTC)temp
C
wind
direction
speed
KPH
gust
KPH
rain 1hr
cm
rain 24hr
cm
rain mn
cm
humidity
%
barometer
mb
20260505223159 26 221 0.0 16.1 0.00 0.00 0.00 35 1005.9
20260505223100 26 206 0.0 16.1 0.00 0.00 0.00 35 1005.8
20260505223021 26 204 0.0 19.3 0.00 0.00 0.00 35 1005.7
20260505223010 26 214 1.6 24.1 0.00 0.00 0.00 35 1005.8
20260505223005 26 220 0.0 19.3 0.00 0.00 0.00 35 1005.8
20260505222756 26 252 1.6 24.1 0.00 0.00 0.00 35 1005.8
20260505222654 26 229 1.6 24.1 0.00 0.00 0.00 34 1005.8
20260505222601 26 223 1.6 24.1 0.00 0.00 0.00 34 1005.8
20260505222555 26 199 1.6 24.1 0.00 0.00 0.00 34 1005.8
20260505222535 27 200 0.0 24.1 0.00 0.00 0.00 34 1005.7
20260505222516 26 215 1.6 24.1 0.00 0.00 0.00 34 1005.8
20260505222403 26 211 1.6 24.1 0.00 0.00 0.00 34 1005.8
20260505222152 27 186 1.6 24.1 0.00 0.00 0.00 34 1005.9
20260505222111 27 238 1.6 24.1 0.00 0.00 0.00 35 1005.8
20260505222106 27 212 1.6 24.1 0.00 0.00 0.00 34 1005.8
20260505222100 27 204 1.6 24.1 0.00 0.00 0.00 34 1005.8
20260505222020 27 236 1.6 24.1 0.00 0.00 0.00 35 1005.7
20260505221851 27 196 1.6 24.1 0.00 0.00 0.00 34 1005.8
20260505221750 27 185 1.6 24.1 0.00 0.00 0.00 34 1005.7
20260505221649 27 238 1.6 24.1 0.00 0.00 0.00 34 1005.8
20260505221557 27 195 1.6 24.1 0.00 0.00 0.00 35 1005.8
20260505221549 27 209 1.6 24.1 0.00 0.00 0.00 35 1005.8
20260505221520 27 236 0.0 17.7 0.00 0.00 0.00 35 1005.7
20260505221500 27 197 1.6 24.1 0.00 0.00 0.00 34 1005.7
20260505221456 27 163 1.6 24.1 0.00 0.00 0.00 35 1005.8
20260505221246 27 175 1.6 24.1 0.00 0.00 0.00 34 1005.7
20260505221146 27 247 1.6 24.1 0.00 0.00 0.00 34 1005.7
20260505221056 27 184 1.6 16.1 0.00 0.00 0.00 34 1005.7
20260505221045 27 190 1.6 16.1 0.00 0.00 0.00 34 1005.7
20260505221020 27 153 16.1 16.1 0.00 0.00 0.00 34 1005.6
20260505220945 27 219 1.6 14.5 0.00 0.00 0.00 34 1005.7
20260505220912 27 239 1.6 16.1 0.00 0.00 0.00 35 1005.7
20260505220908 27 183 1.6 16.1 0.00 0.00 0.00 34 1005.7
20260505220903 27 192 1.6 14.5 0.00 0.00 0.00 34 1005.8
20260505220603 27 207 3.2 33.8 0.00 0.00 0.00 34 1005.7
20260505220558 27 180 1.6 33.8 0.00 0.00 0.00 34 1005.7
20260505220553 27 165 1.6 33.8 0.00 0.00 0.00 34 1005.7
20260505220520 27 195 0.0 33.8 0.00 0.00 0.00 34 1005.6
20260505220343 27 174 3.2 33.8 0.00 0.00 0.00 34 1005.7
20260505220243 27 229 3.2 35.4 0.00 0.00 0.00 34 1005.7
20260505220202 26 201 4.8 35.4 0.00 0.00 0.00 34 1005.7
20260505220156 26 265 4.8 35.4 0.00 0.00 0.00 34 1005.7
20260505220148 26 216 4.8 35.4 0.00 0.00 0.00 34 1005.7
20260505220020 26 173 1.6 35.4 0.00 0.00 0.00 34 1005.6
20260505215940 26 213 4.8 35.4 0.00 0.00 0.00 34 1005.7
20260505215840 26 205 4.8 35.4 0.00 0.00 0.00 34 1005.7
20260505215739 26 196 4.8 35.4 0.00 0.00 0.00 33 1005.6
20260505215658 27 163 3.2 35.4 0.00 0.00 0.00 33 1005.7
20260505215653 26 192 4.8 35.4 0.00 0.00 0.00 33 1005.6
20260505215645 27 170 3.2 35.4 0.00 0.00 0.00 33 1005.7
20260505215520 27 210 1.6 35.4 0.00 0.00 0.00 33 1005.6
20260505215437 27 178 3.2 35.4 0.00 0.00 0.00 33 1005.7
20260505215337 27 196 3.2 35.4 0.00 0.00 0.00 33 1005.7
20260505215237 27 159 1.6 27.4 0.00 0.00 0.00 34 1005.7
20260505215137 27 188 1.6 27.4 0.00 0.00 0.00 33 1005.5
20260505215053 27 248 3.2 24.1 0.00 0.00 0.00 34 1005.7
20260505215037 27 223 3.2 24.1 0.00 0.00 0.00 34 1005.7
20260505215020 27 196 0.0 24.1 0.00 0.00 0.00 35 1005.6
20260505214936 27 193 3.2 24.1 0.00 0.00 0.00 34 1005.7
20260505214833 27 168 4.8 24.1 0.00 0.00 0.00 34 1005.7
20260505214733 27 237 4.8 24.1 0.00 0.00 0.00 34 1005.8
20260505214652 27 193 4.8 24.1 0.00 0.00 0.00 34 1005.7
20260505214647 27 202 4.8 24.1 0.00 0.00 0.00 34 1005.7
20260505214639 27 198 4.8 24.1 0.00 0.00 0.00 34 1005.7
20260505214521 27 244 6.4 24.1 0.00 0.00 0.00 34 1005.6
20260505214430 27 222 4.8 24.1 0.00 0.00 0.00 34 1005.7
20260505214330 27 211 4.8 24.1 0.00 0.00 0.00 34 1005.7
20260505214315 27 205 3.2 24.1 0.00 0.00 0.00 33 1005.6
20260505214230 27 261 4.8 24.1 0.00 0.00 0.00 33 1005.6
20260505214200 27 205 4.8 24.1 0.00 0.00 0.00 33 1005.7
20260505214028 27 202 3.2 24.1 0.00 0.00 0.00 33 1005.6
20260505214020 27 157 17.7 24.1 0.00 0.00 0.00 34 1005.6
20260505213929 27 185 3.2 20.9 0.00 0.00 0.00 34 1005.7
20260505213827 27 241 3.2 20.9 0.00 0.00 0.00 34 1005.6
20260505213727 27 183 3.2 29.0 0.00 0.00 0.00 35 1005.6
20260505213627 27 207 3.2 29.0 0.00 0.00 0.00 34 1005.6
20260505213550 27 183 3.2 29.0 0.00 0.00 0.00 34 1005.5
20260505213527 27 191 3.2 29.0 0.00 0.00 0.00 34 1005.5
20260505213521 27 173 14.5 29.0 0.00 0.00 0.00 34 1005.4
20260505213427 27 195 3.2 29.0 0.00 0.00 0.00 33 1005.5
20260505213327 27 160 3.2 29.0 0.00 0.00 0.00 34 1005.6
20260505213320 27 209 4.8 29.0 0.00 0.00 0.00 33 1005.5
20260505213226 27 211 4.8 29.0 0.00 0.00 0.00 34 1005.6
20260505213158 27 196 3.2 29.0 0.00 0.00 0.00 34 1005.5
20260505213025 27 196 4.8 29.0 0.00 0.00 0.00 33 1005.5
20260505213020 27 221 0.0 29.0 0.00 0.00 0.00 33 1005.4
20260505212924 27 213 4.8 38.6 0.00 0.00 0.00 33 1005.5
20260505212824 27 175 4.8 38.6 0.00 0.00 0.00 33 1005.5
20260505212722 27 194 4.8 38.6 0.00 0.00 0.00 33 1005.5
20260505212622 27 181 4.8 38.6 0.00 0.00 0.00 33 1005.5
20260505212551 27 162 4.8 38.6 0.00 0.00 0.00 33 1005.5
20260505212522 27 177 4.8 38.6 0.00 0.00 0.00 33 1005.5
20260505212520 27 165 6.4 38.6 0.00 0.00 0.00 33 1005.4
20260505212421 27 192 4.8 38.6 0.00 0.00 0.00 33 1005.5
20260505212321 27 195 3.2 38.6 0.00 0.00 0.00 33 1005.5
20260505212220 27 217 4.8 38.6 0.00 0.00 0.00 33 1005.6
20260505212119 27 229 4.8 38.6 0.00 0.00 0.00 33 1005.6
20260505212050 27 220 4.8 38.6 0.00 0.00 0.00 33 1005.6
20260505212032 27 186 3.2 32.2 0.00 0.00 0.00 32 1005.6
20260505212027 27 213 4.8 38.6 0.00 0.00 0.00 32 1005.6
20260505212020 27 185 4.8 38.6 0.00 0.00 0.00 32 1005.5
20260505211816 27 219 3.2 27.4 0.00 0.00 0.00 33 1005.6
20260505211717 27 228 1.6 27.4 0.00 0.00 0.00 33 1005.6
20260505211710 27 211 3.2 27.4 0.00 0.00 0.00 33 1005.5
20260505211704 27 193 3.2 27.4 0.00 0.00 0.00 33 1005.6
20260505211553 27 198 3.2 27.4 0.00 0.00 0.00 33 1005.5
20260505211546 27 171 1.6 24.1 0.00 0.00 0.00 33 1005.6
20260505211541 27 240 3.2 27.4 0.00 0.00 0.00 32 1005.5
20260505211520 27 207 0.0 25.7 0.00 0.00 0.00 32 1005.4
20260505211111 27 190 3.2 17.7 0.00 0.00 0.00 32 1005.5
20260505211048 27 215 3.2 17.7 0.00 0.00 0.00 32 1005.6
20260505211020 27 179 0.0 33.8 0.00 0.00 0.00 32 1005.4
20260505211011 27 179 1.6 33.8 0.00 0.00 0.00 32 1005.5
20260505210925 27 198 3.2 33.8 0.00 0.00 0.00 33 1005.6
20260505210920 27 236 1.6 33.8 0.00 0.00 0.00 32 1005.6
20260505210710 27 194 3.2 33.8 0.00 0.00 0.00 32 1005.6
20260505210610 27 203 3.2 33.8 0.00 0.00 0.00 31 1005.7
20260505210547 27 242 3.2 33.8 0.00 0.00 0.00 31 1005.7
20260505210520 27 219 1.6 33.8 0.00 0.00 0.00 32 1005.5
20260505210509 27 229 3.2 33.8 0.00 0.00 0.00 32 1005.6
20260505210408 27 193 3.2 33.8 0.00 0.00 0.00 31 1005.8
20260505210307 27 213 3.2 33.8 0.00 0.00 0.00 31 1005.8
20260505210207 27 217 3.2 33.8 0.00 0.00 0.00 31 1005.7
20260505210106 27 197 3.2 33.8 0.00 0.00 0.00 31 1005.7
20260505210047 27 196 3.2 33.8 0.00 0.00 0.00 31 1005.7
20260505210020 27 235 0.0 27.4 0.00 0.00 0.00 31 1005.6
20260505210005 27 234 3.2 29.0 0.00 0.00 0.00 31 1005.7
20260505205903 27 221 3.2 29.0 0.00 0.00 0.00 32 1005.7
20260505205803 27 235 3.2 29.0 0.00 0.00 0.00 31 1005.7
20260505205727 27 189 3.2 29.0 0.00 0.00 0.00 31 1005.8
20260505205614 27 175 4.8 38.6 0.00 0.00 0.00 31 1005.8
20260505205607 27 223 4.8 38.6 0.00 0.00 0.00 31 1005.8
20260505205559 27 188 3.2 38.6 0.00 0.00 0.00 31 1005.8
20260505205520 27 197 0.0 38.6 0.00 0.00 0.00 31 1005.6
20260505205446 27 252 3.2 38.6 0.00 0.00 0.00 32 1005.8
20260505205334 27 194 3.2 38.6 0.00 0.00 0.00 31 1005.6
20260505205330 27 192 4.8 38.6 0.00 0.00 0.00 31 1005.6
20260505205324 27 211 3.2 38.6 0.00 0.00 0.00 31 1005.6
20260505205315 27 234 3.2 38.6 0.00 0.00 0.00 31 1005.6
20260505205051 27 220 3.2 38.6 0.00 0.00 0.00 31 1005.6
20260505205020 27 212 0.0 38.6 0.00 0.00 0.00 31 1005.5
20260505204610 27 174 3.2 32.2 0.00 0.00 0.00 31 1005.7
20260505204603 27 185 3.2 32.2 0.00 0.00 0.00 31 1005.7
20260505204520 27 215 4.8 32.2 0.00 0.00 0.00 32 1005.5
20260505204355 27 232 3.2 32.2 0.00 0.00 0.00 31 1005.7
20260505204254 27 180 4.8 32.2 0.00 0.00 0.00 31 1005.7
20260505204209 27 232 4.8 33.8 0.00 0.00 0.00 31 1005.7
20260505204204 27 222 4.8 33.8 0.00 0.00 0.00 31 1005.7
20260505204048 27 194 4.8 33.8 0.00 0.00 0.00 31 1005.7
20260505204020 27 228 0.0 32.2 0.00 0.00 0.00 31 1005.6
20260505203952 27 198 4.8 33.8 0.00 0.00 0.00 31 1005.8
20260505203851 27 184 4.8 33.8 0.00 0.00 0.00 31 1005.8
20260505203749 27 255 6.4 33.8 0.00 0.00 0.00 30 1005.8
20260505203649 27 213 4.8 40.2 0.00 0.00 0.00 31 1005.8
20260505203553 27 219 4.8 40.2 0.00 0.00 0.00 30 1005.7
20260505203546 27 240 4.8 40.2 0.00 0.00 0.00 30 1005.7
20260505203520 27 167 0.0 40.2 0.00 0.00 0.00 31 1005.6
20260505203510 27 250 4.8 40.2 0.00 0.00 0.00 31 1005.8
20260505203357 27 238 4.8 40.2 0.00 0.00 0.00 31 1005.7
20260505203229 27 200 3.2 40.2 0.00 0.00 0.00 31 1005.7
20260505203223 27 192 3.2 40.2 0.00 0.00 0.00 31 1005.7
20260505203213 27 230 3.2 40.2 0.00 0.00 0.00 31 1005.7
20260505203020 27 165 0.0 40.2 0.00 0.00 0.00 30 1005.5
20260505202955 27 202 3.2 40.2 0.00 0.00 0.00 30 1005.7
20260505202745 27 169 1.6 40.2 0.00 0.00 0.00 30 1005.7
20260505202646 27 207 1.6 20.9 0.00 0.00 0.00 31 1005.9
20260505202545 27 152 1.6 20.9 0.00 0.00 0.00 30 1005.7
20260505202520 27 258 0.0 20.9 0.00 0.00 0.00 30 1005.6
20260505202445 27 211 1.6 20.9 0.00 0.00 0.00 30 1005.8
20260505202343 27 246 1.6 20.9 0.00 0.00 0.00 30 1005.7
20260505202243 27 194 1.6 20.9 0.00 0.00 0.00 30 1005.8
20260505202141 27 165 3.2 22.5 0.00 0.00 0.00 31 1005.8
20260505202047 27 191 3.2 35.4 0.00 0.00 0.00 31 1005.8
20260505202040 27 182 3.2 35.4 0.00 0.00 0.00 31 1005.8
20260505202020 27 179 0.0 35.4 0.00 0.00 0.00 31 1005.5
20260505201940 27 219 3.2 35.4 0.00 0.00 0.00 31 1005.7
20260505201840 27 210 3.2 35.4 0.00 0.00 0.00 31 1005.7
20260505201738 27 178 3.2 35.4 0.00 0.00 0.00 31 1005.7
20260505201638 27 288 4.8 35.4 0.00 0.00 0.00 31 1005.7
20260505201545 27 175 4.8 35.4 0.00 0.00 0.00 31 1005.8
20260505201538 27 182 4.8 35.4 0.00 0.00 0.00 31 1005.8
20260505201520 27 176 0.0 35.4 0.00 0.00 0.00 31 1005.5
20260505201437 27 231 4.8 35.4 0.00 0.00 0.00 30 1005.7
20260505201337 27 236 4.8 35.4 0.00 0.00 0.00 31 1005.8
20260505201316 27 199 4.8 35.4 0.00 0.00 0.00 31 1005.8
20260505201235 27 167 4.8 35.4 0.00 0.00 0.00 31 1005.7
20260505201203 27 199 4.8 35.4 0.00 0.00 0.00 31 1005.8
20260505201158 27 180 3.2 35.4 0.00 0.00 0.00 30 1005.8
20260505201043 27 174 4.8 35.4 0.00 0.00 0.00 31 1005.8
20260505201020 27 207 0.0 33.8 0.00 0.00 0.00 31 1005.6
20260505200833 27 200 4.8 35.4 0.00 0.00 0.00 31 1005.8
20260505200733 27 184 4.8 35.4 0.00 0.00 0.00 30 1005.8
20260505200632 27 190 4.8 35.4 0.00 0.00 0.00 30 1005.8
20260505200545 27 188 4.8 30.6 0.00 0.00 0.00 30 1005.8
20260505200532 27 196 4.8 30.6 0.00 0.00 0.00 31 1005.8
20260505200520 27 209 0.0 25.7 0.00 0.00 0.00 31 1005.6
20260505200431 27 210 4.8 30.6 0.00 0.00 0.00 30 1005.8
20260505200349 27 194 4.8 30.6 0.00 0.00 0.00 31 1005.9
20260505200345 27 179 4.8 29.0 0.00 0.00 0.00 30 1005.9
20260505200340 27 186 4.8 30.6 0.00 0.00 0.00 30 1005.8
20260505200153 27 202 4.8 30.6 0.00 0.00 0.00 30 1005.8
20260505200030 27 164 4.8 29.0 0.00 0.00 0.00 30 1005.9
20260505200020 27 148 14.5 24.1 0.00 0.00 0.00 31 1005.7
20260505195928 27 218 4.8 25.7 0.00 0.00 0.00 30 1005.9
20260505195842 27 252 4.8 25.7 0.00 0.00 0.00 30 1005.9
20260505195837 27 191 4.8 25.7 0.00 0.00 0.00 30 1005.9
20260505195627 27 171 4.8 25.7 0.00 0.00 0.00 30 1005.9
20260505195544 27 208 4.8 25.7 0.00 0.00 0.00 31 1005.9
20260505195525 27 169 4.8 35.4 0.00 0.00 0.00 31 1005.9
20260505195520 27 259 0.0 35.4 0.00 0.00 0.00 30 1005.7
20260505195424 27 141 4.8 35.4 0.00 0.00 0.00 31 1005.9
20260505195325 27 163 4.8 35.4 0.00 0.00 0.00 31 1006.0
20260505195224 27 213 4.8 35.4 0.00 0.00 0.00 32 1006.0
20260505195123 27 238 4.8 35.4 0.00 0.00 0.00 30 1006.0
20260505195044 27 180 3.2 35.4 0.00 0.00 0.00 31 1006.0
20260505195030 27 196 3.2 35.4 0.00 0.00 0.00 31 1006.0
20260505195021 27 173 3.2 35.4 0.00 0.00 0.00 31 1006.1
20260505194910 27 187 4.8 30.6 0.00 0.00 0.00 30 1006.0
20260505194904 27 143 3.2 35.4 0.00 0.00 0.00 31 1006.0
20260505194750 27 179 3.2 35.4 0.00 0.00 0.00 30 1005.9
20260505194633 27 169 4.8 35.4 0.00 0.00 0.00 30 1006.0
20260505194550 27 218 1.6 30.6 0.00 0.00 0.00 30 1005.8
20260505194317 27 182 4.8 30.6 0.00 0.00 0.00 31 1005.9
20260505194215 27 202 4.8 30.6 0.00 0.00 0.00 31 1006.0
20260505194115 27 197 4.8 30.6 0.00 0.00 0.00 32 1006.0
20260505194044 27 213 4.8 30.6 0.00 0.00 0.00 31 1005.9
20260505194020 27 176 0.0 30.6 0.00 0.00 0.00 31 1005.8
20260505194015 27 176 4.8 30.6 0.00 0.00 0.00 31 1005.9
20260505193929 27 198 4.8 30.6 0.00 0.00 0.00 30 1006.0
20260505193924 27 232 4.8 30.6 0.00 0.00 0.00 31 1006.0
20260505193714 27 196 6.4 33.8 0.00 0.00 0.00 30 1006.0
20260505193633 27 209 3.2 33.8 0.00 0.00 0.00 30 1006.0
20260505193628 27 207 4.8 33.8 0.00 0.00 0.00 30 1006.1
20260505193620 27 178 3.2 33.8 0.00 0.00 0.00 30 1006.1
20260505193520 27 236 1.6 33.8 0.00 0.00 0.00 30 1005.8
20260505193413 27 180 3.2 38.6 0.00 0.00 0.00 30 1006.0
20260505193313 27 252 3.2 38.6 0.00 0.00 0.00 30 1006.1
20260505193212 27 212 3.2 38.6 0.00 0.00 0.00 31 1006.0
20260505193111 27 232 3.2 38.6 0.00 0.00 0.00 32 1006.1
20260505193041 27 216 3.2 38.6 0.00 0.00 0.00 32 1006.1
20260505193020 27 247 0.0 38.6 0.00 0.00 0.00 30 1005.8
20260505193010 27 240 4.8 38.6 0.00 0.00 0.00 30 1006.0
20260505192908 27 192 4.8 38.6 0.00 0.00 0.00 31 1006.1
20260505192809 27 222 4.8 38.6 0.00 0.00 0.00 30 1006.1
20260505192707 27 198 4.8 38.6 0.00 0.00 0.00 31 1006.1
20260505192636 27 205 6.4 38.6 0.00 0.00 0.00 31 1006.1
20260505192628 27 177 6.4 38.6 0.00 0.00 0.00 31 1006.1
20260505192520 27 232 1.6 38.6 0.00 0.00 0.00 31 1005.9
20260505192517 27 193 6.4 38.6 0.00 0.00 0.00 31 1006.1
20260505192325 27 180 6.4 33.8 0.00 0.00 0.00 31 1006.1
20260505192321 27 252 6.4 33.8 0.00 0.00 0.00 32 1006.2
20260505192316 27 192 6.4 33.8 0.00 0.00 0.00 32 1006.2
20260505192147 27 186 6.4 33.8 0.00 0.00 0.00 31 1006.1
20260505192020 27 211 0.0 30.6 0.00 0.00 0.00 31 1005.9
20260505192005 27 227 4.8 33.8 0.00 0.00 0.00 31 1006.1
20260505191906 27 223 4.8 29.0 0.00 0.00 0.00 31 1006.2
20260505191805 27 165 3.2 29.0 0.00 0.00 0.00 32 1006.1
20260505191717 27 215 3.2 33.8 0.00 0.00 0.00 31 1006.1
20260505191713 27 168 3.2 29.0 0.00 0.00 0.00 31 1006.1
20260505191538 28 157 3.2 33.8 0.00 0.00 0.00 31 1006.1
20260505191520 28 175 1.6 32.2 0.00 0.00 0.00 31 1006.0
20260505191516 28 182 3.2 33.8 0.00 0.00 0.00 32 1006.2
20260505191512 28 150 3.2 33.8 0.00 0.00 0.00 33 1006.2
20260505191301 28 240 3.2 33.8 0.00 0.00 0.00 33 1006.2
20260505191202 27 186 3.2 33.8 0.00 0.00 0.00 32 1006.2
20260505191101 27 240 3.2 33.8 0.00 0.00 0.00 32 1006.2
20260505191038 27 200 3.2 33.8 0.00 0.00 0.00 33 1006.2
20260505191020 27 172 3.2 32.2 0.00 0.00 0.00 33 1006.0
20260505191000 27 189 3.2 33.8 0.00 0.00 0.00 33 1006.2
20260505190859 27 234 4.8 33.8 0.00 0.00 0.00 33 1006.3
20260505190811 27 189 6.4 33.8 0.00 0.00 0.00 32 1006.2
20260505190807 27 209 4.8 33.8 0.00 0.00 0.00 32 1006.2
20260505190558 27 215 4.8 30.6 0.00 0.00 0.00 32 1006.2
20260505190538 27 199 4.8 30.6 0.00 0.00 0.00 32 1006.2
20260505190520 27 199 1.6 30.6 0.00 0.00 0.00 32 1006.1
20260505190457 27 169 4.8 30.6 0.00 0.00 0.00 32 1006.3
20260505190357 27 173 4.8 30.6 0.00 0.00 0.00 35 1006.2
20260505190256 27 255 4.8 30.6 0.00 0.00 0.00 33 1006.3
20260505190155 27 253 4.8 30.6 0.00 0.00 0.00 35 1006.3
20260505190055 27 215 4.8 30.6 0.00 0.00 0.00 33 1006.3
20260505190037 27 205 4.8 30.6 0.00 0.00 0.00 33 1006.3
20260505190020 27 178 0.0 30.6 0.00 0.00 0.00 33 1006.2
20260505185955 27 210 4.8 30.6 0.00 0.00 0.00 33 1006.4
20260505185855 28 204 3.2 30.6 0.00 0.00 0.00 33 1006.4
20260505185807 28 166 1.6 30.6 0.00 0.00 0.00 32 1006.4
20260505185803 28 173 3.2 30.6 0.00 0.00 0.00 32 1006.3
20260505185554 28 173 1.6 22.5 0.00 0.00 0.00 33 1006.5
20260505185535 28 193 0.0 22.5 0.00 0.00 0.00 34 1006.3
20260505185453 28 160 1.6 22.5 0.00 0.00 0.00 34 1006.5
20260505185352 28 220 1.6 22.5 0.00 0.00 0.00 35 1006.4
20260505185251 28 199 1.6 22.5 0.00 0.00 0.00 36 1006.4
20260505185151 28 234 1.6 22.5 0.00 0.00 0.00 36 1006.4
20260505185050 28 204 1.6 22.5 0.00 0.00 0.00 35 1006.4
20260505185035 28 194 1.6 22.5 0.00 0.00 0.00 35 1006.4
20260505185020 28 134 11.3 22.5 0.00 0.00 0.00 35 1006.2
20260505184950 28 212 1.6 22.5 0.00 0.00 0.00 35 1006.4
20260505184849 28 198 1.6 17.7 0.00 0.00 0.00 36 1006.4
20260505184801 28 173 1.6 19.3 0.00 0.00 0.00 35 1006.4
20260505184757 28 188 1.6 17.7 0.00 0.00 0.00 35 1006.4
20260505184601 28 196 1.6 19.3 0.00 0.00 0.00 36 1006.4
20260505184553 28 165 1.6 19.3 0.00 0.00 0.00 36 1006.4
20260505184550 28 203 0.0 19.3 0.00 0.00 0.00 35 1006.3
20260505184546 28 218 1.6 19.3 0.00 0.00 0.00 35 1006.5
20260505184434 28 153 1.6 19.3 0.00 0.00 0.00 34 1006.6
20260505184429 28 186 1.6 19.3 0.00 0.00 0.00 35 1006.5
20260505184316 28 175 1.6 19.3 0.00 0.00 0.00 35 1006.5
20260505184157 28 166 1.6 19.3 0.00 0.00 0.00 34 1006.6
20260505184021 28 223 0.0 19.3 0.00 0.00 0.00 34 1006.3
20260505183855 28 162 3.2 30.6 0.00 0.00 0.00 34 1006.7
20260505183851 28 186 1.6 19.3 0.00 0.00 0.00 34 1006.5
20260505183641 28 213 3.2 30.6 0.00 0.00 0.00 35 1006.6
20260505183542 27 209 3.2 30.6 0.00 0.00 0.00 34 1006.6
20260505183534 27 261 3.2 30.6 0.00 0.00 0.00 34 1006.6
20260505183521 27 195 0.0 20.9 0.00 0.00 0.00 34 1006.3
20260505183439 27 189 1.6 30.6 0.00 0.00 0.00 35 1006.5
20260505183339 27 175 1.6 30.6 0.00 0.00 0.00 34 1006.6
20260505183239 27 186 3.2 30.6 0.00 0.00 0.00 35 1006.5
20260505183138 27 173 3.2 30.6 0.00 0.00 0.00 35 1006.6
20260505183042 27 177 3.2 30.6 0.00 0.00 0.00 33 1006.7
20260505183037 27 192 3.2 30.6 0.00 0.00 0.00 33 1006.7
20260505183035 27 154 9.7 22.5 0.00 0.00 0.00 33 1006.5
20260505182936 27 200 3.2 30.6 0.00 0.00 0.00 34 1006.7
20260505182850 28 244 3.2 24.1 0.00 0.00 0.00 34 1006.6
20260505182846 27 130 3.2 30.6 0.00 0.00 0.00 33 1006.7
20260505182635 28 192 3.2 25.7 0.00 0.00 0.00 36 1006.8
20260505182536 28 205 3.2 25.7 0.00 0.00 0.00 36 1006.7
20260505182521 28 182 3.2 25.7 0.00 0.00 0.00 36 1006.5
20260505182434 28 174 3.2 25.7 0.00 0.00 0.00 34 1006.7
20260505182334 28 210 3.2 25.7 0.00 0.00 0.00 34 1006.5
20260505182233 28 186 3.2 25.7 0.00 0.00 0.00 36 1006.7
20260505182133 28 109 3.2 25.7 0.00 0.00 0.00 34 1006.7
20260505182037 28 203 3.2 25.7 0.00 0.00 0.00 33 1006.8
20260505182031 28 197 3.2 25.7 0.00 0.00 0.00 33 1006.8
20260505182020 28 155 4.8 25.7 0.00 0.00 0.00 33 1006.5
20260505181931 28 199 1.6 25.7 0.00 0.00 0.00 36 1006.7
20260505181829 28 186 1.6 25.7 0.00 0.00 0.00 34 1006.7
20260505181743 28 144 1.6 16.1 0.00 0.00 0.00 35 1006.8
20260505181739 28 210 1.6 20.9 0.00 0.00 0.00 35 1006.8
20260505181535 28 196 1.6 16.1 0.00 0.00 0.00 35 1006.7
20260505181529 28 188 1.6 16.1 0.00 0.00 0.00 35 1006.7
20260505181520 28 227 0.0 14.5 0.00 0.00 0.00 36 1006.6
20260505181428 28 165 1.6 16.1 0.00 0.00 0.00 35 1006.8
20260505181327 28 222 1.6 16.1 0.00 0.00 0.00 35 1006.8
20260505181227 28 205 1.6 16.1 0.00 0.00 0.00 37 1006.9
20260505181126 28 204 1.6 16.1 0.00 0.00 0.00 36 1006.9
20260505181034 28 269 1.6 22.5 0.00 0.00 0.00 37 1006.9
20260505181025 28 265 1.6 22.5 0.00 0.00 0.00 37 1006.9
20260505181020 28 273 0.0 22.5 0.00 0.00 0.00 37 1006.7
20260505180937 27 209 3.2 22.5 0.00 0.00 0.00 36 1006.9
20260505180933 28 189 1.6 22.5 0.00 0.00 0.00 37 1006.9
20260505180737 27 176 3.2 27.4 0.00 0.00 0.00 36 1006.9
20260505180733 27 208 3.2 27.4 0.00 0.00 0.00 35 1006.9
20260505180531 27 209 3.2 27.4 0.00 0.00 0.00 36 1007.0
20260505180523 27 194 3.2 27.4 0.00 0.00 0.00 36 1007.0
20260505180520 27 188 0.0 27.4 0.00 0.00 0.00 36 1006.8
20260505180423 27 214 3.2 27.4 0.00 0.00 0.00 35 1006.9
20260505180322 27 236 3.2 27.4 0.00 0.00 0.00 35 1006.9
20260505180222 27 194 3.2 27.4 0.00 0.00 0.00 34 1006.9
20260505180122 27 171 3.2 27.4 0.00 0.00 0.00 35 1006.9
20260505180028 28 171 3.2 27.4 0.00 0.00 0.00 34 1007.0
20260505180021 28 153 3.2 27.4 0.00 0.00 0.00 34 1007.0
20260505175920 28 211 3.2 27.4 0.00 0.00 0.00 35 1006.9
20260505175818 28 209 1.6 27.4 0.00 0.00 0.00 35 1007.0
20260505175718 28 173 1.6 22.5 0.00 0.00 0.00 35 1007.0
20260505175618 28 185 1.6 22.5 0.00 0.00 0.00 35 1007.0
20260505175528 28 180 0.0 9.7 0.00 0.00 0.00 36 1007.0
20260505175520 28 181 0.0 9.7 0.00 0.00 0.00 36 1006.8
20260505175517 28 212 0.0 9.7 0.00 0.00 0.00 36 1007.0
20260505175416 28 194 0.0 9.7 0.00 0.00 0.00 35 1007.0
20260505175316 28 209 0.0 17.7 0.00 0.00 0.00 36 1007.0
20260505175214 28 201 1.6 17.7 0.00 0.00 0.00 35 1007.0
20260505175114 28 229 1.6 17.7 0.00 0.00 0.00 35 1007.1
20260505175027 28 236 1.6 17.7 0.00 0.00 0.00 35 1007.1
20260505175020 28 233 0.0 12.9 0.00 0.00 0.00 35 1006.8
20260505175013 28 233 1.6 17.7 0.00 0.00 0.00 35 1007.0
20260505174913 28 151 1.6 17.7 0.00 0.00 0.00 35 1007.0
20260505174812 28 292 1.6 17.7 0.00 0.00 0.00 35 1007.0
20260505174711 28 190 1.6 17.7 0.00 0.00 0.00 35 1007.0
20260505174610 28 180 1.6 17.7 0.00 0.00 0.00 35 1007.0
20260505174528 28 188 1.6 24.1 0.00 0.00 0.00 34 1007.0
20260505174520 28 190 0.0 24.1 0.00 0.00 0.00 34 1006.8
20260505174510 28 190 1.6 24.1 0.00 0.00 0.00 34 1007.0
20260505174432 28 176 1.6 24.1 0.00 0.00 0.00 35 1007.1
20260505174319 28 208 1.6 24.1 0.00 0.00 0.00 34 1007.1
20260505174110 28 188 1.6 24.1 0.00 0.00 0.00 36 1007.0
20260505174025 28 220 1.6 24.1 0.00 0.00 0.00 36 1007.0
20260505174020 28 189 0.0 24.1 0.00 0.00 0.00 36 1006.8
20260505174008 28 315 1.6 24.1 0.00 0.00 0.00 36 1007.0
20260505173908 28 303 1.6 24.1 0.00 0.00 0.00 35 1007.1
20260505173808 28 236 1.6 24.1 0.00 0.00 0.00 35 1007.1
20260505173752 28 178 1.6 24.1 0.00 0.00 0.00 38 1007.0
20260505173747 28 208 1.6 16.1 0.00 0.00 0.00 37 1007.1
20260505173742 28 219 1.6 22.5 0.00 0.00 0.00 38 1007.1
20260505173737 28 235 1.6 24.1 0.00 0.00 0.00 34 1007.1
20260505173620 28 227 1.6 16.1 0.00 0.00 0.00 38 1007.0
20260505173520 28 206 0.0 16.1 0.00 0.00 0.00 38 1006.9
20260505173304 28 236 1.6 22.5 0.00 0.00 0.00 39 1007.2
20260505173213 27 300 1.6 22.5 0.00 0.00 0.00 40 1007.2
20260505173209 28 179 1.6 22.5 0.00 0.00 0.00 41 1007.2
20260505173026 27 214 1.6 24.1 0.00 0.00 0.00 37 1007.2
20260505173020 27 170 0.0 24.1 0.00 0.00 0.00 37 1007.0
20260505172959 27 265 1.6 24.1 0.00 0.00 0.00 37 1007.2
20260505172859 28 209 1.6 24.1 0.00 0.00 0.00 37 1007.2
20260505172758 28 182 1.6 24.1 0.00 0.00 0.00 36 1007.2
20260505172657 28 207 1.6 24.1 0.00 0.00 0.00 36 1007.2
20260505172557 28 187 1.6 24.1 0.00 0.00 0.00 37 1007.2
20260505172525 28 169 1.6 24.1 0.00 0.00 0.00 37 1007.2
20260505172520 28 182 1.6 24.1 0.00 0.00 0.00 37 1007.1
20260505172456 28 193 1.6 24.1 0.00 0.00 0.00 37 1007.3
20260505172356 28 227 1.6 24.1 0.00 0.00 0.00 40 1007.2
20260505172308 28 213 1.6 24.1 0.00 0.00 0.00 38 1007.2
20260505172305 28 278 1.6 24.1 0.00 0.00 0.00 39 1007.1
20260505172113 28 186 1.6 17.7 0.00 0.00 0.00 37 1007.2
20260505172108 28 183 1.6 24.1 0.00 0.00 0.00 37 1007.2
20260505172100 28 165 1.6 17.7 0.00 0.00 0.00 37 1007.2
20260505172020 28 184 0.0 17.7 0.00 0.00 0.00 37 1007.0
20260505171853 28 194 1.6 17.7 0.00 0.00 0.00 36 1007.2
20260505171752 28 259 1.6 17.7 0.00 0.00 0.00 37 1007.0
20260505171705 28 199 1.6 12.9 0.00 0.00 0.00 39 1007.2
20260505171700 28 202 1.6 12.9 0.00 0.00 0.00 41 1007.2
20260505171550 28 163 0.0 11.3 0.00 0.00 0.00 38 1007.0
20260505171525 28 212 1.6 12.9 0.00 0.00 0.00 38 1007.2
20260505171447 28 186 1.6 12.9 0.00 0.00 0.00 38 1007.2
20260505171346 28 213 1.6 11.3 0.00 0.00 0.00 39 1007.2
20260505171246 28 236 1.6 11.3 0.00 0.00 0.00 37 1007.2
20260505171145 28 153 1.6 11.3 0.00 0.00 0.00 37 1007.3
20260505171044 28 156 1.6 11.3 0.00 0.00 0.00 36 1007.2
20260505171026 28 173 1.6 11.3 0.00 0.00 0.00 38 1007.2
20260505171020 28 198 3.2 11.3 0.00 0.00 0.00 38 1006.9
20260505170944 28 194 0.0 11.3 0.00 0.00 0.00 38 1007.1
20260505170909 28 226 0.0 9.7 0.00 0.00 0.00 38 1007.2
20260505170905 28 231 0.0 9.7 0.00 0.00 0.00 37 1007.2
20260505170900 28 178 0.0 9.7 0.00 0.00 0.00 40 1007.3
20260505170541 28 196 0.0 9.7 0.00 0.00 0.00 38 1007.2
20260505170526 28 259 0.0 9.7 0.00 0.00 0.00 38 1007.2
20260505170520 28 213 0.0 9.7 0.00 0.00 0.00 38 1007.1
20260505170441 28 186 0.0 9.7 0.00 0.00 0.00 38 1007.3
20260505170353 28 221 0.0 9.7 0.00 0.00 0.00 37 1007.3
20260505170349 28 215 0.0 9.7 0.00 0.00 0.00 36 1007.2
20260505170141 28 205 0.0 9.7 0.00 0.00 0.00 37 1007.2
20260505170040 28 180 0.0 9.7 0.00 0.00 0.00 36 1007.2
20260505170025 28 178 0.0 9.7 0.00 0.00 0.00 36 1007.2
20260505170020 28 171 0.0 9.7 0.00 0.00 0.00 36 1007.0
20260505165941 28 169 0.0 9.7 0.00 0.00 0.00 36 1007.2
20260505165839 28 167 0.0 9.7 0.00 0.00 0.00 36 1007.3
20260505165738 28 192 0.0 9.7 0.00 0.00 0.00 35 1007.2
20260505165651 28 253 0.0 9.7 0.00 0.00 0.00 38 1007.3
20260505165646 28 221 0.0 9.7 0.00 0.00 0.00 36 1007.2
20260505165535 28 227 0.0 9.7 0.00 0.00 0.00 38 1007.1
20260505165525 28 212 0.0 9.7 0.00 0.00 0.00 38 1007.3
20260505165437 28 231 0.0 9.7 0.00 0.00 0.00 36 1007.3
20260505165336 28 159 0.0 9.7 0.00 0.00 0.00 39 1007.3
20260505165236 28 243 0.0 9.7 0.00 0.00 0.00 37 1007.3
20260505165135 28 184 0.0 9.7 0.00 0.00 0.00 36 1007.4
20260505165054 28 195 0.0 8.0 0.00 0.00 0.00 38 1007.3
20260505165048 28 183 0.0 8.0 0.00 0.00 0.00 35 1007.4
20260505165041 28 143 0.0 8.0 0.00 0.00 0.00 35 1007.4
20260505165020 28 176 1.6 6.4 0.00 0.00 0.00 35 1007.1
20260505164833 28 203 0.0 8.0 0.00 0.00 0.00 37 1007.4
20260505164756 28 188 0.0 8.0 0.00 0.00 0.00 35 1007.4
20260505164750 28 192 0.0 8.0 0.00 0.00 0.00 37 1007.3
20260505164741 28 224 0.0 8.0 0.00 0.00 0.00 38 1007.3
20260505164520 28 186 0.0 6.4 0.00 0.00 0.00 35 1007.2
20260505164432 28 177 0.0 8.0 0.00 0.00 0.00 37 1007.4
20260505164331 28 242 0.0 1.6 0.00 0.00 0.00 36 1007.4
20260505164231 28 246 0.0 1.6 0.00 0.00 0.00 36 1007.4
20260505164129 28 231 0.0 1.6 0.00 0.00 0.00 36 1007.4
20260505164032 28 280 0.0 1.6 0.00 0.00 0.00 36 1007.5
20260505164025 28 251 0.0 1.6 0.00 0.00 0.00 36 1007.5
20260505164020 28 238 0.0 1.6 0.00 0.00 0.00 36 1007.2
20260505163928 28 233 0.0 1.6 0.00 0.00 0.00 37 1007.4
20260505163827 28 213 0.0 3.2 0.00 0.00 0.00 37 1007.4
20260505163728 28 210 0.0 11.3 0.00 0.00 0.00 38 1007.4
20260505163627 28 198 0.0 11.3 0.00 0.00 0.00 37 1007.4
20260505163528 28 217 0.0 11.3 0.00 0.00 0.00 37 1007.4
20260505163520 28 167 0.0 11.3 0.00 0.00 0.00 37 1007.2
20260505163426 28 199 0.0 11.3 0.00 0.00 0.00 38 1007.4
20260505163325 28 193 0.0 11.3 0.00 0.00 0.00 38 1007.5
20260505163224 28 233 0.0 11.3 0.00 0.00 0.00 37 1007.4
20260505163144 28 192 0.0 12.9 0.00 0.00 0.00 40 1007.5
20260505163138 28 229 0.0 12.9 0.00 0.00 0.00 39 1007.4
20260505163129 28 202 0.0 12.9 0.00 0.00 0.00 40 1007.5
20260505163020 28 204 0.0 12.9 0.00 0.00 0.00 38 1007.3
20260505162923 28 219 0.0 12.9 0.00 0.00 0.00 37 1007.5
20260505162822 27 279 0.0 12.9 0.00 0.00 0.00 38 1007.5
20260505162750 27 163 0.0 24.1 0.00 0.00 0.00 37 1007.4
20260505162722 27 213 0.0 12.9 0.00 0.00 0.00 37 1007.4
20260505162635 27 219 0.0 24.1 0.00 0.00 0.00 37 1007.4
20260505162550 27 162 0.0 20.9 0.00 0.00 0.00 37 1007.3
20260505162520 27 163 0.0 24.1 0.00 0.00 0.00 37 1007.4
20260505162420 27 248 0.0 24.1 0.00 0.00 0.00 38 1007.4
20260505162319 27 178 1.6 24.1 0.00 0.00 0.00 37 1007.4
20260505162218 27 197 0.0 24.1 0.00 0.00 0.00 39 1007.4
20260505162133 27 201 0.0 24.1 0.00 0.00 0.00 37 1007.4
20260505162125 27 180 0.0 24.1 0.00 0.00 0.00 38 1007.4
20260505162118 27 208 0.0 24.1 0.00 0.00 0.00 38 1007.4
20260505162020 27 196 0.0 20.9 0.00 0.00 0.00 38 1007.3
20260505162005 27 217 0.0 24.1 0.00 0.00 0.00 38 1007.4
20260505161717 27 185 0.0 24.1 0.00 0.00 0.00 38 1007.4
20260505161632 27 285 0.0 6.4 0.00 0.00 0.00 37 1007.3
20260505161520 27 213 0.0 8.0 0.00 0.00 0.00 37 1007.3
20260505161516 27 205 0.0 6.4 0.00 0.00 0.00 37 1007.4
20260505161416 27 194 0.0 8.0 0.00 0.00 0.00 38 1007.4
20260505161315 27 190 0.0 8.0 0.00 0.00 0.00 38 1007.5
20260505161215 27 202 0.0 8.0 0.00 0.00 0.00 39 1007.3
20260505161113 27 216 0.0 8.0 0.00 0.00 0.00 36 1007.3
20260505161024 27 247 0.0 8.0 0.00 0.00 0.00 38 1007.3
20260505161020 27 234 0.0 8.0 0.00 0.00 0.00 38 1007.2
20260505161013 27 234 0.0 8.0 0.00 0.00 0.00 38 1007.3
20260505160912 27 178 0.0 8.0 0.00 0.00 0.00 39 1007.4
20260505160811 27 178 0.0 12.9 0.00 0.00 0.00 39 1007.4
20260505160751 27 209 0.0 12.9 0.00 0.00 0.00 38 1007.5
20260505160747 27 240 0.0 12.9 0.00 0.00 0.00 38 1007.5
20260505160741 27 127 0.0 12.9 0.00 0.00 0.00 36 1007.5
20260505160520 27 157 8.0 9.7 0.00 0.00 0.00 38 1007.4
20260505160509 27 201 0.0 12.9 0.00 0.00 0.00 38 1007.5
20260505160409 27 192 0.0 12.9 0.00 0.00 0.00 38 1007.4
20260505160312 27 204 0.0 12.9 0.00 0.00 0.00 36 1007.4
20260505160306 27 224 0.0 12.9 0.00 0.00 0.00 38 1007.5
20260505160300 27 205 0.0 12.9 0.00 0.00 0.00 36 1007.4
20260505160256 27 233 0.0 12.9 0.00 0.00 0.00 37 1007.5
20260505160251 27 244 0.0 14.5 0.00 0.00 0.00 38 1007.6
20260505160245 27 153 0.0 12.9 0.00 0.00 0.00 38 1007.5
20260505153349 27 249 0.0 3.2 0.00 0.00 0.00 38 1003.8
20260505153304 27 239 0.0 8.0 0.00 0.00 0.00 39 1003.7
20260505153258 27 177 0.0 3.2 0.00 0.00 0.00 40 1003.7
20260505153048 27 195 0.0 8.0 0.00 0.00 0.00 38 1003.7
20260505153021 27 193 0.0 8.0 0.00 0.00 0.00 37 1003.7
20260505152949 27 225 0.0 8.0 0.00 0.00 0.00 37 1003.7
20260505152848 27 215 0.0 8.0 0.00 0.00 0.00 38 1003.7
20260505152750 27 190 0.0 8.0 0.00 0.00 0.00 38 1003.6
20260505152649 27 194 0.0 8.0 0.00 0.00 0.00 38 1003.7
20260505152550 27 232 0.0 8.0 0.00 0.00 0.00 37 1003.4
20260505152519 27 229 0.0 8.0 0.00 0.00 0.00 37 1003.6
20260505152500 27 216 0.0 8.0 0.00 0.00 0.00 37 1003.5
20260505152456 27 183 0.0 8.0 0.00 0.00 0.00 37 1003.5
20260505152247 27 186 0.0 8.0 0.00 0.00 0.00 38 1003.5
20260505152147 27 194 0.0 3.2 0.00 0.00 0.00 38 1003.4
20260505152046 27 195 0.0 6.4 0.00 0.00 0.00 40 1003.4
20260505152020 27 254 0.0 6.4 0.00 0.00 0.00 40 1003.4
20260505151959 27 254 0.0 6.4 0.00 0.00 0.00 40 1003.4
20260505151954 27 247 0.0 6.4 0.00 0.00 0.00 40 1003.5
20260505151745 27 247 0.0 6.4 0.00 0.00 0.00 40 1003.4
20260505151655 27 222 0.0 6.4 0.00 0.00 0.00 39 1003.4
20260505151651 27 182 0.0 6.4 0.00 0.00 0.00 38 1003.3
20260505151520 27 246 0.0 6.4 0.00 0.00 0.00 39 1003.3
20260505151518 27 244 0.0 6.4 0.00 0.00 0.00 39 1003.4
20260505151441 27 208 0.0 6.4 0.00 0.00 0.00 39 1003.4
20260505151401 27 242 0.0 6.4 0.00 0.00 0.00 38 1003.2
20260505151248 27 202 0.0 6.4 0.00 0.00 0.00 38 1003.2
20260505151038 27 190 0.0 6.4 0.00 0.00 0.00 37 1003.3
20260505151020 27 215 0.0 6.4 0.00 0.00 0.00 37 1003.0
20260505151018 27 245 0.0 6.4 0.00 0.00 0.00 37 1003.3
20260505150938 27 235 0.0 4.8 0.00 0.00 0.00 37 1003.1
20260505150837 27 194 0.0 4.8 0.00 0.00 0.00 36 1003.1
20260505150736 27 238 0.0 4.8 0.00 0.00 0.00 37 1003.1
20260505150635 27 220 0.0 4.8 0.00 0.00 0.00 37 1003.1
20260505150535 27 258 0.0 1.6 0.00 0.00 0.00 37 1003.1
20260505150520 27 201 0.0 0.0 0.00 0.00 0.00 37 1003.0
20260505150517 27 227 0.0 1.6 0.00 0.00 0.00 37 1003.1
20260505150434 27 213 0.0 0.0 0.00 0.00 0.00 38 1003.1
20260505150332 27 242 0.0 0.0 0.00 0.00 0.00 38 1003.1
20260505150231 27 248 0.0 0.0 0.00 0.00 0.00 37 1003.2
20260505150144 27 240 0.0 0.0 0.00 0.00 0.00 39 1003.3
20260505150140 27 229 0.0 0.0 0.00 0.00 0.00 39 1003.3
20260505140520 24 290 0.0 4.8 0.00 0.00 0.00 46 1004.2
20260505140456 24 296 0.0 4.8 0.00 0.00 0.00 45 1004.2
20260505140356 24 242 0.0 4.8 0.00 0.00 0.00 45 1004.2
20260505140253 24 194 0.0 3.2 0.00 0.00 0.00 46 1004.2
20260505140206 24 219 0.0 1.6 0.00 0.00 0.00 46 1004.3
20260505140201 24 197 0.0 3.2 0.00 0.00 0.00 47 1004.2
20260505130118 21 246 0.0 4.8 0.00 0.00 0.00 52 1006.0
20260505125019 21 228 0.0 9.7 0.00 0.00 0.00 52 1007.6
20260505124825 21 251 0.0 8.0 0.00 0.00 0.00 53 1006.8
20260505124819 21 247 0.0 6.4 0.00 0.00 0.00 53 1007.3
20260505124609 21 226 0.0 8.0 0.00 0.00 0.00 55 1006.7
20260505124519 20 262 0.0 6.4 0.00 0.00 0.00 56 1006.7
20260505124508 20 262 0.0 8.0 0.00 0.00 0.00 56 1006.8
20260505124459 20 251 0.0 8.0 0.00 0.00 0.00 56 1006.8
20260505124407 20 221 0.0 8.0 0.00 0.00 0.00 56 1006.4
20260505124358 20 245 0.0 8.0 0.00 0.00 0.00 56 1006.3
20260505124247 20 229 0.0 8.0 0.00 0.00 0.00 55 1006.6
20260505124243 20 202 0.0 8.0 0.00 0.00 0.00 54 1006.6
20260505124236 20 245 0.0 8.0 0.00 0.00 0.00 55 1006.4
20260505124118 20 252 0.0 8.0 0.00 0.00 0.00 55 1006.9
20260505124021 20 252 0.0 6.4 0.00 0.00 0.00 55 1006.8
20260505123802 20 243 0.0 8.0 0.00 0.00 0.00 54 1006.6
20260505123702 20 227 0.0 3.2 0.00 0.00 0.00 56 1006.6
20260505123606 20 265 0.0 3.2 0.00 0.00 0.00 56 1006.6
20260505123600 20 219 0.0 3.2 0.00 0.00 0.00 56 1006.5
20260505123501 20 226 0.0 3.2 0.00 0.00 0.00 56 1006.6
20260505123359 20 250 0.0 3.2 0.00 0.00 0.00 56 1006.7
20260505123259 20 202 0.0 3.2 0.00 0.00 0.00 57 1006.7
20260505123157 20 233 0.0 3.2 0.00 0.00 0.00 56 1006.8
20260505123057 20 206 0.0 3.2 0.00 0.00 0.00 55 1006.9
20260505123050 20 209 0.0 3.2 0.00 0.00 0.00 56 1007.6
20260505123003 20 205 0.0 3.2 0.00 0.00 0.00 56 1007.6
20260505122957 20 204 0.0 3.2 0.00 0.00 0.00 56 1007.6
20260505122857 20 240 0.0 1.6 0.00 0.00 0.00 56 1007.6
20260505122755 20 205 0.0 1.6 0.00 0.00 0.00 56 1007.1
20260505122655 20 223 0.0 1.6 0.00 0.00 0.00 57 1007.7
20260505122555 19 263 0.0 1.6 0.00 0.00 0.00 58 1007.0
20260505122519 19 242 0.0 0.0 0.00 0.00 0.00 58 1007.0
20260505122454 19 242 0.0 6.4 0.00 0.00 0.00 58 1007.0
20260505122353 19 230 0.0 6.4 0.00 0.00 0.00 57 1007.0
20260505122315 19 194 0.0 6.4 0.00 0.00 0.00 58 1007.1
20260505122202 19 198 0.0 6.4 0.00 0.00 0.00 57 1007.2
20260505122026 19 198 0.0 6.4 0.00 0.00 0.00 57 1007.3
20260505122019 19 197 0.0 3.2 0.00 0.00 0.00 57 1007.3
20260505121914 19 213 0.0 6.4 0.00 0.00 0.00 57 1007.3
20260505121908 19 197 0.0 6.4 0.00 0.00 0.00 57 1007.3
20260505121551 19 240 0.0 6.4 0.00 0.00 0.00 57 1007.4
20260505121520 19 188 0.0 6.4 0.00 0.00 0.00 58 1007.6
20260505121453 19 214 0.0 6.4 0.00 0.00 0.00 58 1007.6
20260505121448 19 231 0.0 6.4 0.00 0.00 0.00 58 1007.6
20260505121349 19 257 0.0 6.4 0.00 0.00 0.00 59 1007.5
20260505121248 18 222 0.0 6.4 0.00 0.00 0.00 58 1007.7
20260505121221 18 211 0.0 6.4 0.00 0.00 0.00 59 1008.1
20260505121217 18 198 0.0 6.4 0.00 0.00 0.00 58 1008.1
20260505121211 18 200 0.0 6.4 0.00 0.00 0.00 59 1008.1
20260505121054 18 196 0.0 6.4 0.00 0.00 0.00 58 1008.1
20260505121020 18 168 0.0 6.4 0.00 0.00 0.00 58 1008.1
20260505120900 18 205 0.0 6.4 0.00 0.00 0.00 58 1008.2
20260505120854 18 205 0.0 6.4 0.00 0.00 0.00 57 1008.1
20260505120713 18 222 0.0 6.4 0.00 0.00 0.00 58 1008.2
20260505120559 18 236 0.0 6.4 0.00 0.00 0.00 58 1008.1
20260505120551 18 225 0.0 1.6 0.00 0.00 0.00 58 1008.2
20260505120520 18 224 0.0 0.0 0.00 0.00 0.00 58 1008.2
20260505120358 18 236 0.0 1.6 0.00 0.00 0.00 59 1008.2
20260505120353 18 219 0.0 1.6 0.00 0.00 0.00 58 1008.2
20260505120218 18 214 0.0 3.2 0.00 0.00 0.00 59 1008.3
20260505120142 18 221 0.0 1.6 0.00 0.00 0.00 59 1008.3
20260505120100 18 215 0.0 3.2 0.00 0.00 0.00 60 1008.3
20260505120020 18 214 0.0 3.2 0.00 0.00 0.00 59 1008.3
20260505115941 18 214 0.0 3.2 0.00 0.00 0.00 59 1008.3
20260505115839 18 215 0.0 3.2 0.00 0.00 0.00 59 1008.3
20260505115739 18 221 0.0 3.2 0.00 0.00 0.00 60 1008.3
20260505115715 18 211 0.0 3.2 0.00 0.00 0.00 59 1008.3
20260505115638 18 198 0.0 3.2 0.00 0.00 0.00 59 1008.2
20260505115559 18 243 0.0 3.2 0.00 0.00 0.00 59 1008.2
20260505115520 18 191 0.0 3.2 0.00 0.00 0.00 59 1008.3
20260505115435 18 215 0.0 3.2 0.00 0.00 0.00 59 1008.3
20260505115334 18 191 0.0 3.2 0.00 0.00 0.00 60 1008.3
20260505115234 18 195 0.0 3.2 0.00 0.00 0.00 59 1008.4
20260505115133 18 199 0.0 3.2 0.00 0.00 0.00 60 1008.4
20260505115032 18 227 0.0 3.2 0.00 0.00 0.00 60 1008.4
20260505115020 18 227 0.0 3.2 0.00 0.00 0.00 60 1008.4
20260505114949 18 227 0.0 3.2 0.00 0.00 0.00 60 1008.4
20260505114931 18 188 0.0 3.2 0.00 0.00 0.00 60 1008.4
20260505114831 18 198 0.0 3.2 0.00 0.00 0.00 60 1008.4
20260505114731 18 222 0.0 3.2 0.00 0.00 0.00 61 1008.4
20260505114631 18 216 0.0 3.2 0.00 0.00 0.00 60 1008.4
20260505114530 18 217 0.0 3.2 0.00 0.00 0.00 61 1008.4
20260505114520 18 218 0.0 3.2 0.00 0.00 0.00 61 1008.4
20260505114449 18 229 0.0 3.2 0.00 0.00 0.00 63 1008.4
20260505114430 18 182 0.0 0.0 0.00 0.00 0.00 63 1008.4
20260505114329 18 212 0.0 0.0 0.00 0.00 0.00 63 1008.4
20260505114229 18 212 0.0 3.2 0.00 0.00 0.00 63 1008.4
20260505114143 18 212 0.0 3.2 0.00 0.00 0.00 62 1008.4
20260505114137 18 212 0.0 3.2 0.00 0.00 0.00 62 1008.4
20260505114020 18 212 0.0 3.2 0.00 0.00 0.00 62 1008.3
20260505113949 18 212 0.0 3.2 0.00 0.00 0.00 63 1008.3
20260505113926 18 175 0.0 3.2 0.00 0.00 0.00 63 1008.3
20260505113826 18 224 0.0 3.2 0.00 0.00 0.00 63 1008.3
20260505113752 18 224 0.0 3.2 0.00 0.00 0.00 61 1008.4
20260505113748 18 224 0.0 3.2 0.00 0.00 0.00 61 1008.4
20260505113743 18 224 0.0 3.2 0.00 0.00 0.00 62 1008.4
20260505113520 18 211 0.0 3.2 0.00 0.00 0.00 61 1008.4
20260505113447 18 217 0.0 3.2 0.00 0.00 0.00 61 1008.4
20260505113424 18 240 0.0 3.2 0.00 0.00 0.00 62 1008.4
20260505113323 18 188 0.0 3.2 0.00 0.00 0.00 64 1008.5
20260505113224 18 153 0.0 0.0 0.00 0.00 0.00 65 1008.5
20260505113124 17 153 0.0 0.0 0.00 0.00 0.00 63 1008.5
20260505113056 17 153 0.0 0.0 0.00 0.00 0.00 64 1008.4
20260505113052 17 103 0.0 0.0 0.00 0.00 0.00 64 1008.5
20260505113047 17 153 0.0 0.0 0.00 0.00 0.00 63 1008.5
20260505113038 17 153 0.0 0.0 0.00 0.00 0.00 63 1008.4
20260505113019 17 153 0.0 0.0 0.00 0.00 0.00 63 1008.4
20260505112737 17 206 0.0 0.0 0.00 0.00 0.00 64 1008.5
20260505112733 17 103 0.0 0.0 0.00 0.00 0.00 64 1008.5
20260505112524 17 206 0.0 0.0 0.00 0.00 0.00 65 1008.5
20260505112520 17 206 0.0 0.0 0.00 0.00 0.00 64 1008.4
20260505112423 17 206 0.0 0.0 0.00 0.00 0.00 64 1008.4
20260505112323 17 206 0.0 0.0 0.00 0.00 0.00 65 1008.4
20260505112223 17 206 0.0 0.0 0.00 0.00 0.00 65 1008.5
20260505112122 17 206 0.0 0.0 0.00 0.00 0.00 66 1008.4
20260505112022 17 206 0.0 0.0 0.00 0.00 0.00 67 1008.4
20260505112020 17 206 0.0 0.0 0.00 0.00 0.00 67 1008.4
20260505111947 17 206 0.0 0.0 0.00 0.00 0.00 67 1008.3
20260505111921 17 206 0.0 0.0 0.00 0.00 0.00 66 1008.3
20260505111820 17 206 0.0 0.0 0.00 0.00 0.00 66 1008.3
20260505111742 16 206 0.0 0.0 0.00 0.00 0.00 66 1008.3
20260505111719 17 206 0.0 0.0 0.00 0.00 0.00 67 1008.3
20260505111647 16 206 0.0 0.0 0.00 0.00 0.00 66 1008.3
20260505111641 16 206 0.0 0.0 0.00 0.00 0.00 67 1008.3
20260505111632 16 206 0.0 0.0 0.00 0.00 0.00 66 1008.3
20260505111520 16 206 0.0 0.0 0.00 0.00 0.00 66 1008.4
20260505111317 16 206 0.0 0.0 0.00 0.00 0.00 67 1008.2
20260505111217 16 206 0.0 0.0 0.00 0.00 0.00 67 1008.3
20260505111211 16 206 0.0 0.0 0.00 0.00 0.00 68 1008.2
20260505111115 16 206 0.0 0.0 0.00 0.00 0.00 67 1008.3
20260505111054 16 206 0.0 0.0 0.00 0.00 0.00 68 1008.3
20260505111020 16 206 0.0 0.0 0.00 0.00 0.00 68 1008.3
20260505110914 16 206 0.0 0.0 0.00 0.00 0.00 68 1008.2
20260505110813 16 206 0.0 0.0 0.00 0.00 0.00 69 1008.2
20260505110713 16 206 0.0 0.0 0.00 0.00 0.00 69 1008.2
20260505110613 16 206 0.0 0.0 0.00 0.00 0.00 69 1008.1
20260505110550 16 206 0.0 0.0 0.00 0.00 0.00 70 1008.3
20260505110511 16 206 0.0 0.0 0.00 0.00 0.00 70 1008.2
20260505110446 16 206 0.0 0.0 0.00 0.00 0.00 70 1008.2
20260505110411 15 206 0.0 0.0 0.00 0.00 0.00 70 1008.2
20260505110310 15 206 0.0 0.0 0.00 0.00 0.00 70 1008.2
20260505110209 15 206 0.0 0.0 0.00 0.00 0.00 71 1008.2
20260505110109 15 206 0.0 0.0 0.00 0.00 0.00 71 1008.2
20260505102204 14 0 0.0 1.6 0.00 0.00 0.00 71 1008.1
20260505102200 14 0 0.0 1.6 0.00 0.00 0.00 71 1008.1
20260505102020 14 360 0.0 1.6 0.00 0.00 0.00 71 1008.2
20260505101937 14 0 0.0 1.6 0.00 0.00 0.00 71 1008.1
20260505101850 14 0 0.0 1.6 0.00 0.00 0.00 71 1008.1
20260505101748 14 0 0.0 1.6 0.00 0.00 0.00 71 1008.1
20260505101658 15 0 0.0 1.6 0.00 0.00 0.00 70 1008.1
20260505101648 14 0 0.0 1.6 0.00 0.00 0.00 70 1008.1
20260505101552 14 0 0.0 1.6 0.00 0.00 0.00 70 1008.1
20260505101542 15 0 0.0 1.6 0.00 0.00 0.00 70 1008.1
20260505101519 15 360 0.0 1.6 0.00 0.00 0.00 70 1008.2
20260505101354 15 0 0.0 1.6 0.00 0.00 0.00 70 1007.9
20260505101350 15 0 0.0 1.6 0.00 0.00 0.00 70 1008.1
20260505101338 15 0 0.0 1.6 0.00 0.00 0.00 70 1007.9
20260505101333 15 0 0.0 1.6 0.00 0.00 0.00 70 1007.9
20260505101328 15 0 0.0 1.6 0.00 0.00 0.00 70 1008.0
20260505101319 15 0 0.0 1.6 0.00 0.00 0.00 70 1008.0
20260505101020 15 360 0.0 1.6 0.00 0.00 0.00 70 1008.0
20260505100745 15 0 0.0 0.0 0.00 0.00 0.00 70 1007.9
20260505100645 15 0 0.0 0.0 0.00 0.00 0.00 69 1007.9
20260505100544 15 0 0.0 0.0 0.00 0.00 0.00 69 1007.9
20260505100519 15 360 0.0 0.0 0.00 0.00 0.00 69 1008.0
20260505100430 15 0 0.0 0.0 0.00 0.00 0.00 69 1007.9
20260505100343 15 0 0.0 0.0 0.00 0.00 0.00 69 1007.9
20260505100243 15 0 0.0 0.0 0.00 0.00 0.00 69 1007.9
20260505100142 15 0 0.0 0.0 0.00 0.00 0.00 69 1007.9
20260505100040 15 0 0.0 0.0 0.00 0.00 0.00 69 1007.9
20260505100020 15 360 0.0 0.0 0.00 0.00 0.00 69 1008.0
20260505095932 15 0 0.0 0.0 0.00 0.00 0.00 69 1007.9
20260505095927 15 0 0.0 0.0 0.00 0.00 0.00 69 1007.9
20260505095923 15 0 0.0 0.0 0.00 0.00 0.00 69 1007.9
20260505095917 15 0 0.0 0.0 0.00 0.00 0.00 69 1007.9
20260505095804 15 0 0.0 0.0 0.00 0.00 0.00 69 1007.9
20260505095536 15 0 0.0 0.0 0.00 0.00 0.00 69 1007.9
20260505095520 15 360 0.0 0.0 0.00 0.00 0.00 69 1008.0
20260505095359 15 0 0.0 0.0 0.00 0.00 0.00 69 1007.9
20260505095245 15 0 0.0 0.0 0.00 0.00 0.00 69 1007.8
20260505095036 15 0 0.0 0.0 0.00 0.00 0.00 68 1007.8
20260505095020 15 360 0.0 0.0 0.00 0.00 0.00 68 1007.9
20260505094926 15 0 0.0 0.0 0.00 0.00 0.00 68 1007.8
20260505094835 15 0 0.0 0.0 0.00 0.00 0.00 68 1007.8
20260505094734 15 0 0.0 0.0 0.00 0.00 0.00 68 1007.8
20260505094634 15 0 0.0 0.0 0.00 0.00 0.00 68 1007.7
20260505094546 15 0 0.0 0.0 0.00 0.00 0.00 68 1007.7
20260505094542 15 0 0.0 0.0 0.00 0.00 0.00 68 1007.7
20260505094520 15 360 0.0 0.0 0.00 0.00 0.00 68 1007.8
20260505094425 15 0 0.0 0.0 0.00 0.00 0.00 68 1007.7
20260505094331 15 0 0.0 0.0 0.00 0.00 0.00 68 1007.7
20260505094231 15 0 0.0 0.0 0.00 0.00 0.00 68 1007.7
20260505094129 15 0 0.0 0.0 0.00 0.00 0.00 68 1007.7
20260505094035 15 360 0.0 0.0 0.00 0.00 0.00 68 1007.8
20260505094030 15 0 0.0 0.0 0.00 0.00 0.00 68 1007.7
20260505093925 15 0 0.0 0.0 0.00 0.00 0.00 68 1007.7
20260505093850 15 0 0.0 0.0 0.00 0.00 0.00 68 1007.7
20260505093737 15 0 0.0 0.0 0.00 0.00 0.00 68 1007.7
20260505093535 15 360 0.0 0.0 0.00 0.00 0.00 68 1007.9
20260505093528 15 0 0.0 0.0 0.00 0.00 0.00 68 1007.7
20260505093423 15 0 0.0 4.8 0.00 0.00 0.00 68 1007.8
20260505093327 15 0 0.0 4.8 0.00 0.00 0.00 68 1007.7
20260505093226 15 0 0.0 4.8 0.00 0.00 0.00 68 1007.7
20260505093126 15 0 0.0 4.8 0.00 0.00 0.00 68 1007.8
20260505093025 15 0 0.0 4.8 0.00 0.00 0.00 68 1007.7
20260505093020 15 360 0.0 4.8 0.00 0.00 0.00 68 1007.8
20260505092922 15 0 0.0 4.8 0.00 0.00 0.00 68 1007.7
20260505092838 15 0 0.0 4.8 0.00 0.00 0.00 68 1007.8
20260505092834 15 0 0.0 4.8 0.00 0.00 0.00 68 1007.8
20260505092637 15 0 0.0 4.8 0.00 0.00 0.00 68 1007.8
20260505092633 15 0 0.0 4.8 0.00 0.00 0.00 68 1007.7
20260505092520 15 360 0.0 4.8 0.00 0.00 0.00 68 1007.8
20260505092426 15 0 0.0 1.6 0.00 0.00 0.00 68 1007.7
20260505092418 15 0 0.0 1.6 0.00 0.00 0.00 68 1007.7
20260505092414 15 0 0.0 1.6 0.00 0.00 0.00 68 1007.6
20260505092407 15 0 0.0 0.0 0.00 0.00 0.00 68 1007.7
20260505092254 15 0 0.0 0.0 0.00 0.00 0.00 68 1007.7
20260505092020 15 360 0.0 0.0 0.00 0.00 0.00 68 1007.7
20260505091922 15 0 0.0 1.6 0.00 0.00 0.00 68 1007.6
20260505091820 15 0 0.0 1.6 0.00 0.00 0.00 68 1007.7
20260505091720 15 0 0.0 1.6 0.00 0.00 0.00 68 1007.7
20260505091619 15 0 0.0 1.6 0.00 0.00 0.00 68 1007.7
20260505091520 15 360 0.0 0.0 0.00 0.00 0.00 68 1007.8
20260505091418 15 0 0.0 1.6 0.00 0.00 0.00 68 1007.7
20260505091337 15 0 0.0 1.6 0.00 0.00 0.00 68 1007.7
20260505091224 15 0 0.0 1.6 0.00 0.00 0.00 68 1007.7
20260505091020 15 360 0.0 0.0 0.00 0.00 0.00 68 1007.7
20260505091015 15 0 0.0 0.0 0.00 0.00 0.00 68 1007.7
20260505090914 15 0 0.0 0.0 0.00 0.00 0.00 68 1007.6
20260505090814 15 0 0.0 0.0 0.00 0.00 0.00 68 1007.7
20260505090715 15 0 0.0 0.0 0.00 0.00 0.00 68 1007.6
20260505090614 15 0 0.0 0.0 0.00 0.00 0.00 68 1007.6
20260505090534 15 360 0.0 0.0 0.00 0.00 0.00 68 1007.7
20260505090514 15 0 0.0 0.0 0.00 0.00 0.00 68 1007.6
20260505090413 15 0 0.0 0.0 0.00 0.00 0.00 68 1007.6
20260505090311 15 0 0.0 0.0 0.00 0.00 0.00 68 1007.6
20260505090211 15 0 0.0 0.0 0.00 0.00 0.00 68 1007.5
20260505090110 15 0 0.0 3.2 0.00 0.00 0.00 68 1007.5
20260505090101 15 0 0.0 6.4 0.00 0.00 0.00 68 1007.5
20260505090020 15 360 0.0 6.4 0.00 0.00 0.00 68 1007.6
20260505085942 15 0 0.0 6.4 0.00 0.00 0.00 68 1007.5
20260505085721 15 0 0.0 6.4 0.00 0.00 0.00 68 1007.4
20260505085716 15 0 0.0 6.4 0.00 0.00 0.00 68 1007.5
20260505085550 15 360 0.0 6.4 0.00 0.00 0.00 67 1007.5
20260505085526 15 0 0.0 6.4 0.00 0.00 0.00 67 1007.4
20260505085404 15 0 0.0 6.4 0.00 0.00 0.00 68 1007.4
20260505085304 15 0 0.0 6.4 0.00 0.00 0.00 67 1007.5
20260505085201 15 0 0.0 6.4 0.00 0.00 0.00 68 1007.5
20260505085100 15 0 0.0 6.4 0.00 0.00 0.00 67 1007.5
20260505085020 15 360 0.0 1.6 0.00 0.00 0.00 67 1007.5
20260505085000 15 0 0.0 1.6 0.00 0.00 0.00 67 1007.4
20260505084917 15 0 0.0 0.0 0.00 0.00 0.00 67 1007.4
20260505084900 15 0 0.0 0.0 0.00 0.00 0.00 67 1007.4
20260505084758 15 0 0.0 0.0 0.00 0.00 0.00 67 1007.4
20260505084658 15 0 0.0 0.0 0.00 0.00 0.00 67 1007.4
20260505084559 15 0 0.0 0.0 0.00 0.00 0.00 67 1007.4
20260505084520 15 360 0.0 0.0 0.00 0.00 0.00 67 1007.5
20260505084438 15 0 0.0 0.0 0.00 0.00 0.00 67 1007.5
20260505084434 15 0 0.0 0.0 0.00 0.00 0.00 67 1007.4
20260505084428 15 0 0.0 0.0 0.00 0.00 0.00 67 1007.5
20260505084314 15 0 0.0 0.0 0.00 0.00 0.00 67 1007.5
20260505084021 15 360 0.0 0.0 0.00 0.00 0.00 66 1007.6
20260505083955 15 0 0.0 0.0 0.00 0.00 0.00 66 1007.5
20260505083914 15 0 0.0 0.0 0.00 0.00 0.00 66 1007.5
20260505083909 15 0 0.0 0.0 0.00 0.00 0.00 66 1007.5
20260505083904 15 0 0.0 0.0 0.00 0.00 0.00 66 1007.5
20260505083654 15 0 0.0 0.0 0.00 0.00 0.00 66 1007.5
20260505083553 15 0 0.0 0.0 0.00 0.00 0.00 66 1007.5
20260505083519 16 360 0.0 0.0 0.00 0.00 0.00 66 1007.6
20260505083451 15 0 0.0 0.0 0.00 0.00 0.00 66 1007.5
20260505083414 15 0 0.0 0.0 0.00 0.00 0.00 66 1007.5
20260505083404 16 0 0.0 0.0 0.00 0.00 0.00 66 1007.6
20260505083400 16 0 0.0 0.0 0.00 0.00 0.00 66 1007.6
20260505083149 16 0 0.0 0.0 0.00 0.00 0.00 66 1007.6
20260505083050 16 0 0.0 0.0 0.00 0.00 0.00 65 1007.6
20260505083020 16 360 0.0 0.0 0.00 0.00 0.00 65 1007.7
20260505082949 16 0 0.0 0.0 0.00 0.00 0.00 65 1007.6
20260505082914 16 0 0.0 0.0 0.00 0.00 0.00 65 1007.6
20260505082847 16 0 0.0 0.0 0.00 0.00 0.00 65 1007.6
20260505082746 16 0 0.0 0.0 0.00 0.00 0.00 65 1007.6
20260505082646 16 0 0.0 0.0 0.00 0.00 0.00 65 1007.6
20260505082546 16 0 0.0 0.0 0.00 0.00 0.00 65 1007.6
20260505082520 16 360 0.0 0.0 0.00 0.00 0.00 65 1007.8
20260505082445 16 0 0.0 0.0 0.00 0.00 0.00 65 1007.7
20260505082413 16 0 0.0 0.0 0.00 0.00 0.00 65 1007.7
20260505082346 16 0 0.0 0.0 0.00 0.00 0.00 65 1007.6
20260505082304 16 0 0.0 0.0 0.00 0.00 0.00 65 1007.7
20260505082257 16 0 0.0 0.0 0.00 0.00 0.00 65 1007.6
20260505082137 16 0 0.0 0.0 0.00 0.00 0.00 65 1007.7
20260505082130 16 0 0.0 0.0 0.00 0.00 0.00 65 1007.7
20260505082051 16 360 0.0 0.0 0.00 0.00 0.00 65 1007.8
20260505081845 16 0 0.0 0.0 0.00 0.00 0.00 65 1007.7
20260505081744 16 0 0.0 0.0 0.00 0.00 0.00 65 1007.6
20260505081644 16 0 0.0 0.0 0.00 0.00 0.00 65 1007.6
20260505081556 16 0 0.0 0.0 0.00 0.00 0.00 64 1007.7
20260505081550 16 0 0.0 0.0 0.00 0.00 0.00 64 1007.6
20260505081535 16 360 0.0 0.0 0.00 0.00 0.00 64 1007.8
20260505081413 16 0 0.0 0.0 0.00 0.00 0.00 64 1007.6
20260505081338 16 0 0.0 0.0 0.00 0.00 0.00 64 1007.6
20260505081314 16 0 0.0 0.0 0.00 0.00 0.00 64 1007.6
20260505081309 16 0 0.0 0.0 0.00 0.00 0.00 64 1007.6
20260505081155 16 0 0.0 0.0 0.00 0.00 0.00 64 1007.6
20260505081020 16 360 0.0 0.0 0.00 0.00 0.00 64 1007.8
20260505080909 16 0 0.0 0.0 0.00 0.00 0.00 64 1007.7
20260505080837 16 0 0.0 0.0 0.00 0.00 0.00 64 1007.7
20260505080736 16 0 0.0 0.0 0.00 0.00 0.00 64 1007.7
20260505080636 16 0 0.0 0.0 0.00 0.00 0.00 64 1007.6
20260505080626 16 0 0.0 0.0 0.00 0.00 0.00 63 1007.6
20260505080535 16 0 0.0 0.0 0.00 0.00 0.00 63 1007.6
20260505080515 16 0 0.0 0.0 0.00 0.00 0.00 63 1007.6
20260505080335 16 0 0.0 0.0 0.00 0.00 0.00 63 1007.6
20260505080235 16 0 0.0 0.0 0.00 0.00 0.00 63 1007.6
20260505080134 16 0 0.0 0.0 0.00 0.00 0.00 63 1007.6
20260505080103 16 0 0.0 0.0 0.00 0.00 0.00 63 1007.6
20260505080059 16 0 0.0 0.0 0.00 0.00 0.00 63 1007.6
20260505080053 16 0 0.0 0.0 0.00 0.00 0.00 63 1007.6
20260505080020 16 360 0.0 0.0 0.00 0.00 0.00 63 1007.7
20260505075936 16 0 0.0 0.0 0.00 0.00 0.00 63 1007.6
20260505075728 16 0 0.0 0.0 0.00 0.00 0.00 63 1007.6
20260505075626 16 0 0.0 0.0 0.00 0.00 0.00 63 1007.5
20260505075527 16 0 0.0 0.0 0.00 0.00 0.00 63 1007.6
20260505075520 16 360 0.0 0.0 0.00 0.00 0.00 63 1007.7
20260505075409 16 0 0.0 0.0 0.00 0.00 0.00 63 1007.6
20260505075341 16 0 0.0 0.0 0.00 0.00 0.00 63 1007.6
20260505075335 16 0 0.0 0.0 0.00 0.00 0.00 63 1007.6
20260505075126 16 0 0.0 0.0 0.00 0.00 0.00 63 1007.6
20260505075025 16 0 0.0 0.0 0.00 0.00 0.00 63 1007.6
20260505075020 16 360 0.0 0.0 0.00 0.00 0.00 63 1007.7
20260505074925 16 0 0.0 0.0 0.00 0.00 0.00 63 1007.6
20260505074907 16 0 0.0 0.0 0.00 0.00 0.00 62 1007.7
20260505074825 16 0 0.0 0.0 0.00 0.00 0.00 62 1007.7
20260505074724 16 0 0.0 0.0 0.00 0.00 0.00 62 1007.7
20260505074624 16 0 0.0 0.0 0.00 0.00 0.00 62 1007.7
20260505074538 16 0 0.0 0.0 0.00 0.00 0.00 63 1007.7
20260505074532 16 0 0.0 0.0 0.00 0.00 0.00 62 1007.7
20260505074519 16 360 0.0 0.0 0.00 0.00 0.00 62 1007.8
20260505074405 16 0 0.0 0.0 0.00 0.00 0.00 62 1007.7
20260505074322 16 0 0.0 0.0 0.00 0.00 0.00 62 1007.7
20260505074237 16 0 0.0 0.0 0.00 0.00 0.00 62 1007.7
20260505074232 16 0 0.0 0.0 0.00 0.00 0.00 62 1007.7
20260505074022 16 0 0.0 0.0 0.00 0.00 0.00 62 1007.6
20260505074020 16 360 0.0 0.0 0.00 0.00 0.00 62 1007.8
20260505073922 16 0 0.0 0.0 0.00 0.00 0.00 62 1007.7
20260505073905 16 0 0.0 0.0 0.00 0.00 0.00 62 1007.6
20260505073821 16 0 0.0 0.0 0.00 0.00 0.00 62 1007.6
20260505073721 16 0 0.0 0.0 0.00 0.00 0.00 62 1007.7
20260505073620 16 0 0.0 0.0 0.00 0.00 0.00 62 1007.7
20260505073535 16 360 0.0 0.0 0.00 0.00 0.00 62 1007.7
20260505073520 16 0 0.0 0.0 0.00 0.00 0.00 62 1007.6
20260505073403 16 0 0.0 0.0 0.00 0.00 0.00 62 1007.6
20260505073334 16 0 0.0 0.0 0.00 0.00 0.00 62 1007.6
20260505073328 16 0 0.0 0.0 0.00 0.00 0.00 62 1007.6
20260505073118 16 0 0.0 0.0 0.00 0.00 0.00 62 1007.6
20260505073020 16 360 0.0 0.0 0.00 0.00 0.00 62 1007.7
20260505073018 16 0 0.0 0.0 0.00 0.00 0.00 62 1007.6
20260505072903 16 0 0.0 0.0 0.00 0.00 0.00 62 1007.6
20260505072817 16 0 0.0 0.0 0.00 0.00 0.00 61 1007.6
20260505072738 16 0 0.0 0.0 0.00 0.00 0.00 62 1007.6
20260505072624 16 0 0.0 0.0 0.00 0.00 0.00 61 1007.7
20260505072520 16 360 0.0 0.0 0.00 0.00 0.00 61 1007.7
20260505072403 16 0 0.0 0.0 0.00 0.00 0.00 61 1007.6
20260505072314 16 0 0.0 0.0 0.00 0.00 0.00 61 1007.6
20260505072214 16 0 0.0 0.0 0.00 0.00 0.00 61 1007.6
20260505072113 16 0 0.0 0.0 0.00 0.00 0.00 61 1007.6
20260505072035 16 360 0.0 0.0 0.00 0.00 0.00 61 1007.7
20260505072027 16 0 0.0 0.0 0.00 0.00 0.00 61 1007.6
20260505072022 16 0 0.0 0.0 0.00 0.00 0.00 61 1007.6
20260505071901 16 0 0.0 0.0 0.00 0.00 0.00 61 1007.6
20260505071812 16 0 0.0 0.0 0.00 0.00 0.00 61 1007.6
20260505071711 16 0 0.0 0.0 0.00 0.00 0.00 61 1007.6
20260505071640 16 0 0.0 0.0 0.00 0.00 0.00 61 1007.6
20260505071611 16 0 0.0 0.0 0.00 0.00 0.00 61 1007.6
20260505071536 16 0 0.0 0.0 0.00 0.00 0.00 61 1007.6
20260505071531 16 0 0.0 0.0 0.00 0.00 0.00 61 1007.6
20260505071522 16 0 0.0 0.0 0.00 0.00 0.00 61 1007.6
20260505071520 17 360 0.0 0.0 0.00 0.00 0.00 61 1007.7
20260505071207 16 0 0.0 0.0 0.00 0.00 0.00 61 1007.6
20260505071105 16 0 0.0 0.0 0.00 0.00 0.00 61 1007.7
20260505071020 17 360 0.0 0.0 0.00 0.00 0.00 61 1007.7
20260505071005 17 0 0.0 0.0 0.00 0.00 0.00 61 1007.6
20260505070907 17 0 0.0 0.0 0.00 0.00 0.00 61 1007.7
20260505070900 17 0 0.0 0.0 0.00 0.00 0.00 61 1007.7
20260505070804 17 0 0.0 0.0 0.00 0.00 0.00 60 1007.7
20260505070704 17 0 0.0 0.0 0.00 0.00 0.00 60 1007.7
20260505070603 17 0 0.0 0.0 0.00 0.00 0.00 60 1007.7
20260505070522 17 0 0.0 0.0 0.00 0.00 0.00 60 1007.8
20260505070520 17 360 0.0 0.0 0.00 0.00 0.00 60 1007.8
20260505070516 17 0 0.0 0.0 0.00 0.00 0.00 60 1007.7
20260505070403 17 0 0.0 0.0 0.00 0.00 0.00 60 1007.8
20260505070301 17 0 0.0 0.0 0.00 0.00 0.00 60 1007.7
20260505070201 17 0 0.0 0.0 0.00 0.00 0.00 60 1007.7
20260505070115 17 0 0.0 0.0 0.00 0.00 0.00 60 1007.7
20260505070109 17 0 0.0 0.0 0.00 0.00 0.00 60 1007.7
20260505070050 17 360 0.0 0.0 0.00 0.00 0.00 60 1007.8
20260505065859 17 0 0.0 0.0 0.00 0.00 0.00 60 1007.7
20260505065758 17 0 0.0 0.0 0.00 0.00 0.00 60 1007.6
20260505065658 17 0 0.0 0.0 0.00 0.00 0.00 60 1007.6
20260505065558 17 0 0.0 0.0 0.00 0.00 0.00 60 1007.6
20260505065520 17 360 0.0 0.0 0.00 0.00 0.00 60 1007.7
20260505065457 17 0 0.0 0.0 0.00 0.00 0.00 60 1007.6
20260505065356 17 0 0.0 0.0 0.00 0.00 0.00 60 1007.7
20260505065256 17 0 0.0 0.0 0.00 0.00 0.00 60 1007.6
20260505065209 17 0 0.0 0.0 0.00 0.00 0.00 60 1007.6
20260505065203 17 0 0.0 0.0 0.00 0.00 0.00 60 1007.6
20260505065020 17 360 0.0 0.0 0.00 0.00 0.00 60 1007.7
20260505064954 17 0 0.0 0.0 0.00 0.00 0.00 60 1007.6
20260505064853 17 0 0.0 0.0 0.00 0.00 0.00 60 1007.6
20260505064753 17 0 0.0 1.6 0.00 0.00 0.00 60 1007.6
20260505064652 17 0 0.0 1.6 0.00 0.00 0.00 60 1007.7
20260505064552 17 0 0.0 1.6 0.00 0.00 0.00 60 1007.6
20260505064520 17 360 0.0 1.6 0.00 0.00 0.00 60 1007.7
20260505064451 17 0 0.0 1.6 0.00 0.00 0.00 60 1007.6
20260505064352 17 0 0.0 1.6 0.00 0.00 0.00 60 1007.6
20260505064250 17 0 0.0 1.6 0.00 0.00 0.00 60 1007.6
20260505064150 17 0 0.0 1.6 0.00 0.00 0.00 60 1007.6
20260505064049 17 0 0.0 1.6 0.00 0.00 0.00 60 1007.6
20260505064020 17 360 0.0 1.6 0.00 0.00 0.00 60 1007.7
20260505063949 17 0 0.0 1.6 0.00 0.00 0.00 60 1007.6
20260505063856 17 0 0.0 1.6 0.00 0.00 0.00 60 1007.6
20260505063849 17 0 0.0 3.2 0.00 0.00 0.00 60 1007.6
20260505063748 17 0 0.0 3.2 0.00 0.00 0.00 60 1007.6
20260505063647 17 0 0.0 3.2 0.00 0.00 0.00 60 1007.6
20260505063546 17 0 0.0 3.2 0.00 0.00 0.00 60 1007.6
20260505063519 17 360 0.0 3.2 0.00 0.00 0.00 60 1007.7
20260505063500 16 0 0.0 3.2 0.00 0.00 0.00 60 1007.6
20260505063451 16 0 0.0 3.2 0.00 0.00 0.00 60 1007.6
20260505063245 16 0 0.0 3.2 0.00 0.00 0.00 60 1007.6
20260505063145 16 0 0.0 3.2 0.00 0.00 0.00 60 1007.6
20260505063044 16 0 0.0 3.2 0.00 0.00 0.00 60 1007.6
20260505063020 17 360 0.0 3.2 0.00 0.00 0.00 60 1007.7
20260505062958 16 0 0.0 3.2 0.00 0.00 0.00 60 1007.6
20260505062950 16 0 0.0 3.2 0.00 0.00 0.00 60 1007.6
20260505062743 16 0 0.0 3.2 0.00 0.00 0.00 60 1007.6
20260505062643 16 0 0.0 3.2 0.00 0.00 0.00 60 1007.6
20260505062609 16 0 0.0 3.2 0.00 0.00 0.00 60 1007.7
20260505062543 16 0 0.0 3.2 0.00 0.00 0.00 60 1007.7
20260505062520 17 360 0.0 3.2 0.00 0.00 0.00 60 1007.8
20260505062501 16 0 0.0 3.2 0.00 0.00 0.00 60 1007.7
20260505062341 16 0 0.0 3.2 0.00 0.00 0.00 60 1007.7
20260505062241 16 0 0.0 3.2 0.00 0.00 0.00 60 1007.7
20260505062158 16 0 0.0 3.2 0.00 0.00 0.00 60 1007.7
20260505062154 16 0 0.0 3.2 0.00 0.00 0.00 59 1007.7
20260505062149 16 0 0.0 3.2 0.00 0.00 0.00 60 1007.7
20260505062035 17 360 0.0 1.6 0.00 0.00 0.00 59 1007.8
20260505062000 16 0 0.0 3.2 0.00 0.00 0.00 59 1007.7
20260505061837 16 0 0.0 3.2 0.00 0.00 0.00 59 1007.7
20260505061737 16 0 0.0 3.2 0.00 0.00 0.00 59 1007.6
20260505061637 16 0 0.0 3.2 0.00 0.00 0.00 59 1007.6
20260505061536 16 0 0.0 3.2 0.00 0.00 0.00 59 1007.6
20260505061520 16 360 0.0 9.7 0.00 0.00 0.00 59 1007.7
20260505061436 16 0 0.0 9.7 0.00 0.00 0.00 59 1007.6
20260505061349 16 0 0.0 9.7 0.00 0.00 0.00 59 1007.6
20260505061335 16 0 0.0 9.7 0.00 0.00 0.00 60 1007.6
20260505061235 16 0 0.0 9.7 0.00 0.00 0.00 60 1007.6
20260505061135 16 0 0.0 9.7 0.00 0.00 0.00 60 1007.6
20260505061116 16 0 0.0 9.7 0.00 0.00 0.00 60 1007.6
20260505061110 16 0 0.0 9.7 0.00 0.00 0.00 60 1007.6
20260505061104 16 0 0.0 9.7 0.00 0.00 0.00 60 1007.6
20260505061050 16 360 0.0 9.7 0.00 0.00 0.00 60 1007.7
20260505060833 16 0 0.0 9.7 0.00 0.00 0.00 60 1007.6
20260505060732 16 0 0.0 9.7 0.00 0.00 0.00 60 1007.5
20260505060632 16 0 0.0 17.7 0.00 0.00 0.00 60 1007.5
20260505060605 16 360 0.0 17.7 0.00 0.00 0.00 60 1007.6
20260505060531 16 0 0.0 17.7 0.00 0.00 0.00 60 1007.6
20260505060445 16 0 0.0 17.7 0.00 0.00 0.00 60 1007.5
20260505060437 16 0 0.0 17.7 0.00 0.00 0.00 60 1007.6
20260505060230 16 0 0.0 17.7 0.00 0.00 0.00 60 1007.5
20260505060129 16 0 0.0 17.7 0.00 0.00 0.00 60 1007.6
20260505060043 16 0 0.0 17.7 0.00 0.00 0.00 60 1007.6
20260505060038 16 0 0.0 17.7 0.00 0.00 0.00 60 1007.5
20260505060020 16 360 0.0 17.7 0.00 0.00 0.00 60 1007.7
20260505055827 16 0 0.0 17.7 0.00 0.00 0.00 60 1007.6
20260505055748 16 0 0.0 17.7 0.00 0.00 0.00 60 1007.6
20260505055634 16 0 0.0 12.9 0.00 0.00 0.00 60 1007.6
20260505055520 16 360 0.0 6.4 0.00 0.00 0.00 60 1007.7
20260505055454 16 0 0.0 1.6 0.00 0.00 0.00 60 1007.6
20260505055448 16 0 0.0 6.4 0.00 0.00 0.00 60 1007.6
20260505055440 16 0 0.0 6.4 0.00 0.00 0.00 61 1007.6
20260505055124 16 0 0.0 1.6 0.00 0.00 0.00 60 1007.5
20260505055035 16 360 0.0 9.7 0.00 0.00 0.00 61 1007.6
20260505055023 16 0 0.0 1.6 0.00 0.00 0.00 61 1007.6
20260505054951 16 0 0.0 9.7 0.00 0.00 0.00 60 1007.5
20260505054943 16 0 0.0 9.7 0.00 0.00 0.00 60 1007.5
20260505054832 16 0 0.0 9.7 0.00 0.00 0.00 60 1007.5
20260505054622 16 0 0.0 9.7 0.00 0.00 0.00 60 1007.6
20260505054522 16 0 0.0 9.7 0.00 0.00 0.00 60 1007.6
20260505054520 16 360 0.0 9.7 0.00 0.00 0.00 60 1007.7
20260505054435 16 0 0.0 9.7 0.00 0.00 0.00 60 1007.6
20260505054427 16 0 0.0 9.7 0.00 0.00 0.00 60 1007.6
20260505054219 16 0 0.0 9.7 0.00 0.00 0.00 60 1007.6
20260505054119 16 0 0.0 9.7 0.00 0.00 0.00 60 1007.6
20260505054020 16 360 6.4 6.4 0.00 0.00 0.00 60 1007.6
20260505053918 16 0 0.0 0.0 0.00 0.00 0.00 60 1007.5
20260505053833 16 0 0.0 0.0 0.00 0.00 0.00 60 1007.5
20260505053827 16 0 0.0 0.0 0.00 0.00 0.00 60 1007.6
20260505053617 16 0 0.0 0.0 0.00 0.00 0.00 59 1007.6
20260505053602 16 0 0.0 0.0 0.00 0.00 0.00 59 1007.6
20260505053520 16 360 0.0 0.0 0.00 0.00 0.00 59 1007.7
20260505053516 16 0 0.0 0.0 0.00 0.00 0.00 59 1007.5
20260505053452 16 0 0.0 0.0 0.00 0.00 0.00 59 1007.6
20260505053314 16 0 0.0 0.0 0.00 0.00 0.00 59 1007.6
20260505053214 16 0 0.0 0.0 0.00 0.00 0.00 59 1007.6
20260505053114 16 0 0.0 0.0 0.00 0.00 0.00 58 1007.5
20260505053107 16 0 0.0 0.0 0.00 0.00 0.00 58 1007.5
20260505053020 16 360 0.0 0.0 0.00 0.00 0.00 58 1007.7
20260505053014 16 0 0.0 0.0 0.00 0.00 0.00 58 1007.6
20260505052949 16 0 0.0 0.0 0.00 0.00 0.00 58 1007.5
20260505052812 16 0 0.0 0.0 0.00 0.00 0.00 58 1007.5
20260505052723 16 0 0.0 0.0 0.00 0.00 0.00 58 1007.6
20260505052609 16 0 0.0 0.0 0.00 0.00 0.00 58 1007.6
20260505052520 16 360 0.0 0.0 0.00 0.00 0.00 58 1007.6
20260505052509 16 0 0.0 0.0 0.00 0.00 0.00 58 1007.5
20260505052448 16 0 0.0 1.6 0.00 0.00 0.00 58 1007.6
20260505052308 16 0 0.0 1.6 0.00 0.00 0.00 58 1007.7
20260505052207 16 0 0.0 1.6 0.00 0.00 0.00 57 1007.6
20260505052107 16 0 0.0 1.6 0.00 0.00 0.00 57 1007.6
20260505052020 16 360 0.0 1.6 0.00 0.00 0.00 58 1007.8
20260505052006 16 0 0.0 1.6 0.00 0.00 0.00 58 1007.7
20260505051906 16 0 0.0 1.6 0.00 0.00 0.00 57 1007.7
20260505051841 16 0 0.0 1.6 0.00 0.00 0.00 57 1007.7
20260505051806 16 0 0.0 1.6 0.00 0.00 0.00 57 1007.7
20260505051705 16 0 0.0 1.6 0.00 0.00 0.00 57 1007.6
20260505051605 16 0 0.0 1.6 0.00 0.00 0.00 57 1007.7
20260505051520 16 360 0.0 1.6 0.00 0.00 0.00 57 1007.8
20260505051503 16 0 0.0 1.6 0.00 0.00 0.00 57 1007.7
20260505051340 16 0 0.0 0.0 0.00 0.00 0.00 57 1007.6
20260505051301 16 0 0.0 0.0 0.00 0.00 0.00 57 1007.7
20260505051201 16 0 0.0 0.0 0.00 0.00 0.00 57 1007.7
20260505051100 16 0 0.0 0.0 0.00 0.00 0.00 57 1007.7
20260505051020 16 360 0.0 0.0 0.00 0.00 0.00 57 1007.8
20260505051000 16 0 0.0 0.0 0.00 0.00 0.00 57 1007.7
20260505050838 16 0 0.0 0.0 0.00 0.00 0.00 56 1007.7
20260505050759 16 0 0.0 0.0 0.00 0.00 0.00 56 1007.7
20260505050659 16 0 0.0 0.0 0.00 0.00 0.00 56 1007.7
20260505050558 16 0 0.0 0.0 0.00 0.00 0.00 56 1007.7
20260505050535 16 360 0.0 0.0 0.00 0.00 0.00 56 1007.8
20260505050459 16 0 0.0 0.0 0.00 0.00 0.00 56 1007.7
20260505050336 16 0 0.0 0.0 0.00 0.00 0.00 56 1007.7
20260505050258 16 0 0.0 0.0 0.00 0.00 0.00 56 1007.7
20260505050158 16 0 0.0 0.0 0.00 0.00 0.00 56 1007.8
20260505050110 16 0 0.0 0.0 0.00 0.00 0.00 56 1007.8
20260505050105 16 0 0.0 0.0 0.00 0.00 0.00 56 1007.7
20260505041734 17 0 0.0 9.7 0.00 0.00 0.00 51 1007.7
20260505041634 17 0 0.0 9.7 0.00 0.00 0.00 51 1007.7
20260505041535 17 360 0.0 12.9 0.00 0.00 0.00 51 1007.7
20260505041533 17 0 1.6 12.9 0.00 0.00 0.00 51 1007.7
20260505041433 17 0 1.6 12.9 0.00 0.00 0.00 51 1007.7
20260505041326 17 0 1.6 12.9 0.00 0.00 0.00 51 1007.7
20260505041230 17 0 1.6 12.9 0.00 0.00 0.00 51 1007.7
20260505041130 17 0 1.6 12.9 0.00 0.00 0.00 51 1007.6
20260505041109 17 0 1.6 12.9 0.00 0.00 0.00 51 1007.7
20260505041020 17 360 0.0 12.9 0.00 0.00 0.00 51 1007.5
20260505040957 17 0 1.6 12.9 0.00 0.00 0.00 51 1007.6
20260505040951 17 0 1.6 12.9 0.00 0.00 0.00 51 1007.5
20260505040838 17 0 1.6 12.9 0.00 0.00 0.00 51 1007.6
20260505040627 17 0 1.6 29.0 0.00 0.00 0.00 50 1007.6
20260505040540 17 0 1.6 29.0 0.00 0.00 0.00 50 1007.5
20260505040535 17 0 1.6 29.0 0.00 0.00 0.00 50 1007.5
20260505040520 17 360 0.0 29.0 0.00 0.00 0.00 50 1007.5
20260505040345 17 0 1.6 29.0 0.00 0.00 0.00 50 1007.5
20260505040335 17 0 1.6 29.0 0.00 0.00 0.00 50 1007.5
20260505040124 17 0 1.6 29.0 0.00 0.00 0.00 50 1007.5
20260505040035 17 360 0.0 29.0 0.00 0.00 0.00 50 1007.5
20260505040022 17 0 1.6 29.0 0.00 0.00 0.00 50 1007.4
20260505035922 17 0 1.6 29.0 0.00 0.00 0.00 50 1007.5
20260505035821 17 0 1.6 29.0 0.00 0.00 0.00 50 1007.4
20260505035721 17 0 1.6 29.0 0.00 0.00 0.00 50 1007.5
20260505035619 17 0 1.6 29.0 0.00 0.00 0.00 50 1007.4
20260505035520 17 360 0.0 29.0 0.00 0.00 0.00 50 1007.4
20260505035419 17 0 1.6 29.0 0.00 0.00 0.00 49 1007.4
20260505035316 17 0 1.6 29.0 0.00 0.00 0.00 49 1007.4
20260505035216 17 0 1.6 29.0 0.00 0.00 0.00 49 1007.4
20260505035115 17 0 0.0 29.0 0.00 0.00 0.00 49 1007.4
20260505035020 17 360 0.0 12.9 0.00 0.00 0.00 49 1007.5
20260505035014 17 0 1.6 12.9 0.00 0.00 0.00 49 1007.5
20260505034915 17 0 1.6 19.3 0.00 0.00 0.00 49 1007.5
20260505034821 17 0 1.6 19.3 0.00 0.00 0.00 49 1007.5
20260505034814 17 0 1.6 19.3 0.00 0.00 0.00 49 1007.4
20260505034714 17 0 1.6 19.3 0.00 0.00 0.00 49 1007.5
20260505034614 17 0 1.6 24.1 0.00 0.00 0.00 49 1007.6
20260505034520 17 360 0.0 19.3 0.00 0.00 0.00 49 1007.5
20260505034513 17 0 1.6 24.1 0.00 0.00 0.00 49 1007.5
20260505034414 17 0 1.6 24.1 0.00 0.00 0.00 49 1007.5
20260505034320 17 0 1.6 24.1 0.00 0.00 0.00 49 1007.5
20260505034313 18 0 3.2 24.1 0.00 0.00 0.00 49 1007.5
20260505034212 17 0 3.2 24.1 0.00 0.00 0.00 49 1007.5
20260505034112 18 0 3.2 24.1 0.00 0.00 0.00 49 1007.4
20260505034020 18 360 4.8 19.3 0.00 0.00 0.00 49 1007.4
20260505034011 18 0 1.6 24.1 0.00 0.00 0.00 49 1007.4
20260505033910 18 0 1.6 24.1 0.00 0.00 0.00 49 1007.4
20260505033822 18 0 1.6 24.1 0.00 0.00 0.00 48 1007.4
20260505033809 18 0 3.2 24.1 0.00 0.00 0.00 48 1007.5
20260505033709 18 0 3.2 24.1 0.00 0.00 0.00 48 1007.4
20260505033609 18 0 3.2 20.9 0.00 0.00 0.00 48 1007.5
20260505033535 18 360 0.0 19.3 0.00 0.00 0.00 48 1007.4
20260505033509 18 0 1.6 20.9 0.00 0.00 0.00 48 1007.4
20260505033407 18 0 1.6 20.9 0.00 0.00 0.00 48 1007.4
20260505033321 18 0 1.6 20.9 0.00 0.00 0.00 48 1007.4
20260505033307 18 0 1.6 20.9 0.00 0.00 0.00 48 1007.5
20260505033207 18 0 1.6 20.9 0.00 0.00 0.00 48 1007.5
20260505033107 18 0 3.2 20.9 0.00 0.00 0.00 48 1007.5
20260505033020 18 360 0.0 20.9 0.00 0.00 0.00 48 1007.5
20260505033008 18 0 3.2 20.9 0.00 0.00 0.00 48 1007.5
20260505032905 18 0 3.2 24.1 0.00 0.00 0.00 48 1007.4
20260505032805 18 0 3.2 24.1 0.00 0.00 0.00 48 1007.4
20260505032740 18 0 3.2 24.1 0.00 0.00 0.00 47 1007.5
20260505032734 18 0 1.6 24.1 0.00 0.00 0.00 48 1007.5
20260505032621 18 0 1.6 24.1 0.00 0.00 0.00 48 1007.5
20260505032535 18 360 0.0 24.1 0.00 0.00 0.00 47 1007.5
20260505032319 18 0 3.2 24.1 0.00 0.00 0.00 48 1007.5
20260505032304 18 0 1.6 24.1 0.00 0.00 0.00 48 1007.5
20260505032202 18 0 1.6 24.1 0.00 0.00 0.00 47 1007.5
20260505032122 18 0 1.6 24.1 0.00 0.00 0.00 47 1007.5
20260505032035 18 360 4.8 24.1 0.00 0.00 0.00 47 1007.5
20260505032009 18 0 0.0 24.1 0.00 0.00 0.00 47 1007.5
20260505031820 18 0 0.0 16.1 0.00 0.00 0.00 47 1007.5
20260505031800 18 0 0.0 16.1 0.00 0.00 0.00 47 1007.5
20260505031659 18 0 0.0 16.1 0.00 0.00 0.00 47 1007.5
20260505031559 18 0 0.0 16.1 0.00 0.00 0.00 47 1007.5
20260505031520 18 360 0.0 16.1 0.00 0.00 0.00 47 1007.5
20260505031458 18 0 0.0 16.1 0.00 0.00 0.00 47 1007.5
20260505031357 18 0 0.0 6.4 0.00 0.00 0.00 47 1007.5
20260505031317 18 0 0.0 6.4 0.00 0.00 0.00 47 1007.5
20260505031256 18 0 0.0 6.4 0.00 0.00 0.00 47 1007.6
20260505031156 18 0 0.0 6.4 0.00 0.00 0.00 47 1007.6
20260505031055 18 0 0.0 6.4 0.00 0.00 0.00 47 1007.6
20260505031020 18 360 0.0 9.7 0.00 0.00 0.00 46 1007.5
20260505030952 18 0 0.0 9.7 0.00 0.00 0.00 47 1007.5
20260505030852 18 0 0.0 9.7 0.00 0.00 0.00 46 1007.5
20260505030821 18 0 0.0 9.7 0.00 0.00 0.00 46 1007.5
20260505030814 18 0 0.0 9.7 0.00 0.00 0.00 46 1007.6
20260505030701 18 0 0.0 9.7 0.00 0.00 0.00 46 1007.6
20260505030520 18 360 0.0 9.7 0.00 0.00 0.00 46 1007.5
20260505030452 18 0 0.0 9.7 0.00 0.00 0.00 46 1007.5
20260505030352 18 0 0.0 9.7 0.00 0.00 0.00 46 1007.5
20260505030317 18 0 0.0 9.7 0.00 0.00 0.00 46 1007.5
20260505030251 18 0 0.0 9.7 0.00 0.00 0.00 46 1007.5
20260505030151 18 0 0.0 9.7 0.00 0.00 0.00 46 1007.5
20260505030051 18 0 0.0 9.7 0.00 0.00 0.00 47 1007.5
20260505030020 18 360 1.6 6.4 0.00 0.00 0.00 47 1007.5
20260505025949 18 0 0.0 6.4 0.00 0.00 0.00 47 1007.5
20260505025848 18 0 0.0 6.4 0.00 0.00 0.00 46 1007.5
20260505025816 18 0 0.0 6.4 0.00 0.00 0.00 46 1007.5
20260505025810 18 0 0.0 6.4 0.00 0.00 0.00 46 1007.5
20260505025656 18 0 0.0 6.4 0.00 0.00 0.00 47 1007.5
20260505025520 18 360 4.8 8.0 0.00 0.00 0.00 47 1007.4
20260505025447 18 0 1.6 8.0 0.00 0.00 0.00 47 1007.4
20260505025347 18 0 1.6 16.1 0.00 0.00 0.00 46 1007.5
20260505025314 18 0 1.6 16.1 0.00 0.00 0.00 46 1007.5
20260505025246 18 0 1.6 16.1 0.00 0.00 0.00 46 1007.5
20260505025145 18 0 1.6 16.1 0.00 0.00 0.00 46 1007.5
20260505025044 18 0 1.6 16.1 0.00 0.00 0.00 46 1007.5
20260505025020 18 360 0.0 16.1 0.00 0.00 0.00 46 1007.5
20260505024942 18 0 1.6 16.1 0.00 0.00 0.00 46 1007.5
20260505024814 18 0 1.6 16.1 0.00 0.00 0.00 46 1007.6
20260505024743 18 0 1.6 16.1 0.00 0.00 0.00 46 1007.6
20260505024643 18 0 1.6 16.1 0.00 0.00 0.00 46 1007.6
20260505024540 18 0 1.6 16.1 0.00 0.00 0.00 46 1007.6
20260505024535 18 360 0.0 16.1 0.00 0.00 0.00 46 1007.6
20260505024440 18 0 1.6 16.1 0.00 0.00 0.00 46 1007.6
20260505024359 18 0 1.6 12.9 0.00 0.00 0.00 46 1007.7
20260505024347 18 0 1.6 12.9 0.00 0.00 0.00 46 1007.7
20260505024138 18 0 1.6 12.9 0.00 0.00 0.00 46 1007.7
20260505024051 18 0 1.6 12.9 0.00 0.00 0.00 46 1007.7
20260505024046 18 0 1.6 12.9 0.00 0.00 0.00 46 1007.8
20260505024021 18 360 0.0 12.9 0.00 0.00 0.00 46 1007.7
20260505023837 18 0 1.6 12.9 0.00 0.00 0.00 46 1007.8
20260505023814 18 0 0.0 12.9 0.00 0.00 0.00 46 1007.8
20260505023735 18 0 0.0 12.9 0.00 0.00 0.00 46 1007.8
20260505023635 18 0 0.0 12.9 0.00 0.00 0.00 46 1007.8
20260505023534 18 0 0.0 12.9 0.00 0.00 0.00 46 1007.8
20260505023520 18 360 8.0 12.9 0.00 0.00 0.00 46 1007.8
20260505023434 18 0 0.0 8.0 0.00 0.00 0.00 46 1007.8
20260505023353 18 0 0.0 9.7 0.00 0.00 0.00 46 1007.8
20260505023348 18 0 0.0 8.0 0.00 0.00 0.00 46 1007.8
20260505023341 18 0 0.0 9.7 0.00 0.00 0.00 46 1007.8
20260505023133 18 0 0.0 9.7 0.00 0.00 0.00 46 1007.8
20260505023100 18 0 0.0 9.7 0.00 0.00 0.00 46 1007.8
20260505023056 18 0 0.0 9.7 0.00 0.00 0.00 46 1007.8
20260505023051 18 0 0.0 9.7 0.00 0.00 0.00 46 1007.8
20260505023020 18 360 0.0 9.7 0.00 0.00 0.00 46 1007.8
20260505022810 18 0 0.0 9.7 0.00 0.00 0.00 46 1007.8
20260505022731 18 0 0.0 9.7 0.00 0.00 0.00 46 1007.8
20260505022630 18 0 0.0 9.7 0.00 0.00 0.00 46 1007.8
20260505022535 18 360 0.0 9.7 0.00 0.00 0.00 46 1007.9
20260505022530 18 0 0.0 9.7 0.00 0.00 0.00 46 1007.9
20260505022430 18 0 0.0 9.7 0.00 0.00 0.00 46 1007.9
20260505022329 18 0 0.0 9.7 0.00 0.00 0.00 46 1007.8
20260505022310 18 0 0.0 8.0 0.00 0.00 0.00 46 1007.9
20260505022229 18 0 0.0 8.0 0.00 0.00 0.00 46 1007.9
20260505022127 18 0 0.0 8.0 0.00 0.00 0.00 46 1007.8
20260505022027 18 0 0.0 8.0 0.00 0.00 0.00 46 1007.9
20260505022020 18 360 0.0 8.0 0.00 0.00 0.00 46 1007.8
20260505021943 18 0 0.0 9.7 0.00 0.00 0.00 46 1007.9
20260505021937 18 0 0.0 8.0 0.00 0.00 0.00 46 1007.8
20260505021809 18 0 0.0 9.7 0.00 0.00 0.00 46 1007.9
20260505021741 18 0 0.0 9.7 0.00 0.00 0.00 46 1007.9
20260505021736 18 0 0.0 9.7 0.00 0.00 0.00 46 1007.9
20260505021525 18 0 0.0 9.7 0.00 0.00 0.00 46 1007.9
20260505021520 18 360 0.0 9.7 0.00 0.00 0.00 46 1007.9
20260505021425 18 0 0.0 9.7 0.00 0.00 0.00 47 1007.9
20260505021308 18 0 0.0 9.7 0.00 0.00 0.00 46 1007.9
20260505021222 18 0 0.0 9.7 0.00 0.00 0.00 46 1007.9
20260505021122 18 0 0.0 9.7 0.00 0.00 0.00 46 1007.9
20260505021050 18 360 0.0 14.5 0.00 0.00 0.00 46 1007.8
20260505021019 18 0 1.6 14.5 0.00 0.00 0.00 46 1007.9
20260505020920 18 0 1.6 14.5 0.00 0.00 0.00 46 1007.8
20260505020819 18 0 1.6 14.5 0.00 0.00 0.00 46 1007.9
20260505020809 18 0 0.0 14.5 0.00 0.00 0.00 46 1007.8
20260505020719 18 0 0.0 14.5 0.00 0.00 0.00 46 1007.8
20260505020618 18 0 0.0 14.5 0.00 0.00 0.00 46 1007.9
20260505020535 18 360 0.0 14.5 0.00 0.00 0.00 46 1007.9
20260505020531 18 0 0.0 14.5 0.00 0.00 0.00 46 1007.9
20260505020526 18 0 0.0 14.5 0.00 0.00 0.00 46 1007.9
20260505020309 18 0 0.0 14.5 0.00 0.00 0.00 46 1007.9
20260505020215 18 0 0.0 14.5 0.00 0.00 0.00 46 1007.9
20260505020115 18 0 0.0 14.5 0.00 0.00 0.00 46 1007.9
20260505020020 18 360 0.0 1.6 0.00 0.00 0.00 46 1007.9
20260505020012 18 0 0.0 1.6 0.00 0.00 0.00 46 1007.9
20260505015929 18 0 0.0 3.2 0.00 0.00 0.00 46 1007.8
20260505015924 18 0 0.0 1.6 0.00 0.00 0.00 46 1007.9
20260505015808 18 0 0.0 3.2 0.00 0.00 0.00 46 1007.8
20260505015711 18 0 0.0 3.2 0.00 0.00 0.00 46 1007.9
20260505015611 18 0 0.0 3.2 0.00 0.00 0.00 46 1007.8
20260505015520 18 360 0.0 3.2 0.00 0.00 0.00 46 1007.8
20260505015511 18 0 0.0 3.2 0.00 0.00 0.00 46 1007.9
20260505015427 18 0 0.0 3.2 0.00 0.00 0.00 46 1007.8
20260505015422 18 0 0.0 3.2 0.00 0.00 0.00 46 1007.8
20260505015306 18 0 0.0 3.2 0.00 0.00 0.00 46 1007.8
20260505015224 18 0 0.0 9.7 0.00 0.00 0.00 45 1007.8
20260505015219 18 0 0.0 9.7 0.00 0.00 0.00 46 1007.8
20260505015020 18 360 1.6 9.7 0.00 0.00 0.00 45 1007.7
20260505015009 18 0 0.0 9.7 0.00 0.00 0.00 45 1007.8
20260505014908 18 0 0.0 9.7 0.00 0.00 0.00 46 1007.8
20260505014810 18 0 0.0 9.7 0.00 0.00 0.00 45 1007.8
20260505014708 18 0 0.0 9.7 0.00 0.00 0.00 45 1007.9
20260505014608 18 0 0.0 9.7 0.00 0.00 0.00 46 1007.8
20260505014550 18 360 0.0 9.7 0.00 0.00 0.00 45 1007.7
20260505014507 18 0 0.0 9.7 0.00 0.00 0.00 45 1007.8
20260505014407 18 0 0.0 9.7 0.00 0.00 0.00 45 1007.8
20260505014307 18 0 0.0 9.7 0.00 0.00 0.00 45 1007.8
20260505014206 18 0 0.0 3.2 0.00 0.00 0.00 45 1007.9
20260505014106 18 0 0.0 3.2 0.00 0.00 0.00 45 1007.9
20260505014033 18 0 0.0 4.8 0.00 0.00 0.00 45 1007.9
20260505014020 18 360 0.0 3.2 0.00 0.00 0.00 45 1007.8
20260505014005 18 0 0.0 3.2 0.00 0.00 0.00 45 1007.9
20260505013919 18 0 0.0 4.8 0.00 0.00 0.00 45 1007.9
20260505013804 18 0 0.0 4.8 0.00 0.00 0.00 45 1007.9
20260505013704 18 0 0.0 4.8 0.00 0.00 0.00 45 1007.9
20260505013604 18 0 0.0 4.8 0.00 0.00 0.00 45 1007.9
20260505013521 18 360 0.0 14.5 0.00 0.00 0.00 45 1007.8
20260505013515 18 0 0.0 14.5 0.00 0.00 0.00 45 1007.9
20260505013511 18 0 0.0 14.5 0.00 0.00 0.00 45 1007.9
20260505013307 18 0 0.0 14.5 0.00 0.00 0.00 45 1007.9
20260505013301 18 0 0.0 14.5 0.00 0.00 0.00 45 1007.9
20260505013203 18 0 0.0 14.5 0.00 0.00 0.00 45 1007.9
20260505013113 18 0 0.0 14.5 0.00 0.00 0.00 45 1007.9
20260505013109 18 0 0.0 14.5 0.00 0.00 0.00 45 1007.9
20260505013020 18 360 0.0 14.5 0.00 0.00 0.00 45 1007.8
20260505012900 18 0 0.0 14.5 0.00 0.00 0.00 46 1007.9
20260505012805 18 0 0.0 14.5 0.00 0.00 0.00 46 1007.9
20260505012759 18 0 0.0 14.5 0.00 0.00 0.00 46 1007.9
20260505012659 18 0 0.0 14.5 0.00 0.00 0.00 46 1007.9
20260505012557 18 0 0.0 14.5 0.00 0.00 0.00 46 1007.8
20260505012520 18 360 14.5 14.5 0.00 0.00 0.00 46 1007.8
20260505012511 18 0 0.0 6.4 0.00 0.00 0.00 46 1007.9
20260505012507 18 0 0.0 8.0 0.00 0.00 0.00 46 1007.9
20260505012315 18 0 0.0 6.4 0.00 0.00 0.00 46 1007.9
20260505012311 18 0 0.0 6.4 0.00 0.00 0.00 46 1007.9
20260505012306 18 0 0.0 6.4 0.00 0.00 0.00 46 1007.9
20260505012056 18 0 0.0 6.4 0.00 0.00 0.00 46 1007.9
20260505012020 18 360 0.0 6.4 0.00 0.00 0.00 46 1007.8
20260505011956 18 0 0.0 6.4 0.00 0.00 0.00 46 1007.9
20260505011856 18 0 0.0 6.4 0.00 0.00 0.00 46 1007.8
20260505011815 18 0 0.0 6.4 0.00 0.00 0.00 46 1007.9
20260505011702 18 0 0.0 6.4 0.00 0.00 0.00 46 1007.8
20260505011535 18 360 0.0 0.0 0.00 0.00 0.00 46 1007.7
20260505011452 17 0 0.0 0.0 0.00 0.00 0.00 46 1007.8
20260505011352 17 0 0.0 0.0 0.00 0.00 0.00 46 1007.8
20260505011252 17 0 0.0 0.0 0.00 0.00 0.00 46 1007.8
20260505011216 17 0 0.0 0.0 0.00 0.00 0.00 47 1007.8
20260505011212 17 0 0.0 0.0 0.00 0.00 0.00 47 1007.8
20260505011208 17 0 0.0 0.0 0.00 0.00 0.00 47 1007.8
20260505011035 17 360 0.0 0.0 0.00 0.00 0.00 47 1007.7
20260505010849 17 0 0.0 0.0 0.00 0.00 0.00 47 1007.8
20260505010748 17 0 0.0 0.0 0.00 0.00 0.00 47 1007.7
20260505010648 17 0 0.0 0.0 0.00 0.00 0.00 47 1007.7
20260505010547 17 0 0.0 0.0 0.00 0.00 0.00 47 1007.6
20260505010535 17 360 0.0 0.0 0.00 0.00 0.00 47 1007.5
20260505010446 17 0 0.0 0.0 0.00 0.00 0.00 47 1007.6
20260505010242 17 0 0.0 0.0 0.00 0.00 0.00 47 1007.6
20260505010142 17 0 0.0 0.0 0.00 0.00 0.00 47 1007.5
20260505010041 17 0 0.0 0.0 0.00 0.00 0.00 47 1007.5
20260505010020 17 360 0.0 0.0 0.00 0.00 0.00 47 1007.4
20260505005941 17 0 0.0 0.0 0.00 0.00 0.00 48 1007.5
20260505005842 17 0 0.0 0.0 0.00 0.00 0.00 47 1007.4
20260505005741 17 0 0.0 0.0 0.00 0.00 0.00 47 1007.5
20260505005641 17 0 0.0 0.0 0.00 0.00 0.00 47 1007.4
20260505005541 17 0 0.0 0.0 0.00 0.00 0.00 47 1007.5
20260505005535 17 360 0.0 0.0 0.00 0.00 0.00 47 1007.4
20260505005533 18 0 0.0 0.0 0.00 0.00 0.00 46 1007.4
20260505005527 17 0 0.0 0.0 0.00 0.00 0.00 47 1007.5
20260505005415 18 0 0.0 0.0 0.00 0.00 0.00 46 1007.4
20260505005410 18 0 0.0 0.0 0.00 0.00 0.00 47 1007.5
20260505005401 18 0 0.0 0.0 0.00 0.00 0.00 46 1007.4
20260505005020 18 360 0.0 0.0 0.00 0.00 0.00 46 1007.3
20260505004937 18 0 0.0 0.0 0.00 0.00 0.00 46 1007.4
20260505004850 18 0 0.0 0.0 0.00 0.00 0.00 46 1007.3
20260505004841 18 0 0.0 0.0 0.00 0.00 0.00 45 1007.4
20260505004635 18 0 0.0 0.0 0.00 0.00 0.00 46 1007.3
20260505004547 18 0 0.0 0.0 0.00 0.00 0.00 45 1007.4
20260505004543 18 0 0.0 0.0 0.00 0.00 0.00 45 1007.3
20260505004520 18 360 0.0 0.0 0.00 0.00 0.00 45 1007.3
20260505004333 18 0 0.0 0.0 0.00 0.00 0.00 44 1007.3
20260505004232 18 0 0.0 0.0 0.00 0.00 0.00 44 1007.3
20260505004132 18 0 0.0 0.0 0.00 0.00 0.00 44 1007.3
20260505004032 18 0 0.0 0.0 0.00 0.00 0.00 44 1007.3
20260505004020 18 360 0.0 0.0 0.00 0.00 0.00 44 1007.1
20260505003932 18 0 0.0 0.0 0.00 0.00 0.00 44 1007.2
20260505003846 18 0 0.0 0.0 0.00 0.00 0.00 44 1007.3
20260505003837 18 0 0.0 0.0 0.00 0.00 0.00 44 1007.3
20260505003631 18 0 0.0 0.0 0.00 0.00 0.00 44 1007.3
20260505003535 18 360 0.0 0.0 0.00 0.00 0.00 43 1007.2
20260505003530 18 0 0.0 0.0 0.00 0.00 0.00 43 1007.3
20260505003429 18 0 0.0 0.0 0.00 0.00 0.00 43 1007.3
20260505003329 18 0 0.0 0.0 0.00 0.00 0.00 43 1007.2
20260505003229 19 0 0.0 0.0 0.00 0.00 0.00 43 1007.2
20260505003129 19 0 0.0 0.0 0.00 0.00 0.00 43 1007.3
20260505003028 19 0 0.0 0.0 0.00 0.00 0.00 42 1007.2
20260505003020 19 360 0.0 0.0 0.00 0.00 0.00 42 1007.2
20260505002928 19 0 0.0 0.0 0.00 0.00 0.00 42 1007.3
20260505002827 19 0 0.0 0.0 0.00 0.00 0.00 42 1007.2
20260505002727 19 0 0.0 0.0 0.00 0.00 0.00 42 1007.2
20260505002626 19 0 0.0 0.0 0.00 0.00 0.00 42 1007.2
20260505002525 19 0 0.0 0.0 0.00 0.00 0.00 42 1007.2
20260505002520 19 360 0.0 0.0 0.00 0.00 0.00 42 1007.2
20260505002514 19 0 0.0 0.0 0.00 0.00 0.00 42 1007.3
20260505002425 19 0 0.0 0.0 0.00 0.00 0.00 42 1007.3
20260505002358 19 0 0.0 0.0 0.00 0.00 0.00 42 1007.3
20260505002236 19 0 0.0 0.0 0.00 0.00 0.00 41 1007.3
20260505002232 19 0 0.0 0.0 0.00 0.00 0.00 42 1007.3
20260505002022 19 0 0.0 0.0 0.00 0.00 0.00 41 1007.3
20260505002020 19 360 0.0 0.0 0.00 0.00 0.00 41 1007.2
20260505001922 19 0 0.0 0.0 0.00 0.00 0.00 41 1007.3
20260505001822 19 0 0.0 0.0 0.00 0.00 0.00 41 1007.3
20260505001722 19 0 0.0 0.0 0.00 0.00 0.00 41 1007.2
20260505001621 19 0 0.0 0.0 0.00 0.00 0.00 41 1007.2
20260505001550 19 360 0.0 0.0 0.00 0.00 0.00 41 1007.1
20260505001521 19 0 0.0 0.0 0.00 0.00 0.00 41 1007.2
20260505001421 19 0 0.0 0.0 0.00 0.00 0.00 41 1007.2
20260505001320 19 0 0.0 0.0 0.00 0.00 0.00 41 1007.2
20260505001220 19 0 0.0 0.0 0.00 0.00 0.00 41 1007.1
20260505001119 19 0 0.0 0.0 0.00 0.00 0.00 41 1007.1
20260505001105 20 360 0.0 0.0 0.00 0.00 0.00 41 1007.0
20260505001018 19 0 0.0 0.0 0.00 0.00 0.00 41 1007.1
20260505001009 20 0 0.0 0.0 0.00 0.00 0.00 41 1007.1
20260505000918 19 0 0.0 0.0 0.00 0.00 0.00 41 1007.1
20260505000854 20 0 0.0 0.0 0.00 0.00 0.00 41 1007.1
20260505000717 20 0 0.0 0.0 0.00 0.00 0.00 41 1007.1
20260505000616 20 0 0.0 0.0 0.00 0.00 0.00 41 1007.1
20260505000535 20 360 0.0 0.0 0.00 0.00 0.00 41 1007.0
20260505000515 20 0 0.0 0.0 0.00 0.00 0.00 41 1007.1
20260505000416 20 0 0.0 0.0 0.00 0.00 0.00 41 1007.1
20260505000314 20 0 0.0 0.0 0.00 0.00 0.00 41 1007.1
20260505000215 20 0 0.0 0.0 0.00 0.00 0.00 41 1007.1
20260505000113 20 0 0.0 0.0 0.00 0.00 0.00 41 1007.1
20260505000020 20 360 0.0 0.0 0.00 0.00 0.00 40 1006.9
20260505000013 20 0 0.0 0.0 0.00 0.00 0.00 40 1007.0
20260504235913 20 0 0.0 0.0 0.00 0.00 0.00 40 1007.1
20260504235824 20 0 0.0 0.0 0.00 0.00 0.00 40 1007.1
20260504235816 20 0 0.0 0.0 0.00 0.00 0.00 41 1007.1
20260504235635 20 0 0.0 0.0 0.00 0.00 0.00 40 1007.1
20260504235522 20 0 0.0 0.0 0.00 0.00 0.00 40 1007.0
20260504235520 20 360 0.0 0.0 0.00 0.00 0.00 40 1007.0
20260504235517 20 0 0.0 0.0 0.00 0.00 0.00 40 1007.1
20260504235348 20 0 0.0 0.0 0.00 0.00 0.00 40 1007.0
20260504235207 20 0 0.0 0.0 0.00 0.00 0.00 40 1007.1
20260504235107 20 0 0.0 0.0 0.00 0.00 0.00 40 1007.1
20260504235020 20 360 0.0 0.0 0.00 0.00 0.00 39 1006.9
20260504235007 20 0 0.0 0.0 0.00 0.00 0.00 39 1007.0
20260504234906 20 0 0.0 0.0 0.00 0.00 0.00 39 1007.1
20260504234806 20 0 0.0 0.0 0.00 0.00 0.00 40 1007.1
20260504234738 20 0 0.0 0.0 0.00 0.00 0.00 40 1007.1
20260504234707 20 0 0.0 0.0 0.00 0.00 0.00 40 1007.0
20260504234605 20 0 0.0 0.0 0.00 0.00 0.00 40 1007.0
20260504234520 20 360 0.0 0.0 0.00 0.00 0.00 40 1006.9
20260504234505 20 0 0.0 0.0 0.00 0.00 0.00 40 1007.0
20260504234457 20 0 0.0 0.0 0.00 0.00 0.00 40 1007.0
20260504234405 20 0 0.0 0.0 0.00 0.00 0.00 40 1007.0
20260504234346 20 0 0.0 0.0 0.00 0.00 0.00 40 1007.0
20260504234217 20 0 0.0 0.0 0.00 0.00 0.00 39 1007.0
20260504234213 20 0 0.0 0.0 0.00 0.00 0.00 39 1007.0
20260504234020 20 360 0.0 1.6 0.00 0.00 0.00 39 1006.9
20260504234013 20 0 0.0 1.6 0.00 0.00 0.00 39 1007.0
20260504234009 20 0 0.0 1.6 0.00 0.00 0.00 39 1007.0
20260504233819 20 0 0.0 12.9 0.00 0.00 0.00 39 1006.9
20260504233814 20 0 0.0 1.6 0.00 0.00 0.00 39 1007.0
20260504233806 20 0 0.0 3.2 0.00 0.00 0.00 39 1007.0
20260504233559 20 0 0.0 12.9 0.00 0.00 0.00 39 1007.0
20260504233520 20 360 0.0 12.9 0.00 0.00 0.00 39 1006.9
20260504233512 20 0 0.0 12.9 0.00 0.00 0.00 39 1007.0
20260504233508 20 0 0.0 12.9 0.00 0.00 0.00 39 1007.0
20260504233315 20 0 0.0 12.9 0.00 0.00 0.00 38 1007.0
20260504233204 20 0 0.0 12.9 0.00 0.00 0.00 38 1007.0
20260504233020 20 360 0.0 12.9 0.00 0.00 0.00 38 1006.8
20260504233008 20 0 0.0 12.9 0.00 0.00 0.00 38 1006.9
20260504233004 20 0 0.0 12.9 0.00 0.00 0.00 38 1006.9
20260504232737 20 0 0.0 12.9 0.00 0.00 0.00 38 1007.0
20260504232653 20 0 0.0 9.7 0.00 0.00 0.00 39 1007.0
20260504232553 20 0 0.0 9.7 0.00 0.00 0.00 38 1007.0
20260504232520 21 360 0.0 9.7 0.00 0.00 0.00 38 1006.8
20260504232452 20 0 0.0 6.4 0.00 0.00 0.00 38 1007.0
20260504232351 21 0 0.0 9.7 0.00 0.00 0.00 38 1007.0
20260504232235 21 0 0.0 14.5 0.00 0.00 0.00 38 1007.0
20260504232151 21 0 0.0 14.5 0.00 0.00 0.00 38 1007.0
20260504232050 21 0 0.0 14.5 0.00 0.00 0.00 38 1007.0
20260504232020 21 360 0.0 9.7 0.00 0.00 0.00 38 1006.8
20260504231950 21 0 0.0 14.5 0.00 0.00 0.00 37 1007.0
20260504231848 21 0 0.0 14.5 0.00 0.00 0.00 38 1007.0
20260504231736 21 0 0.0 14.5 0.00 0.00 0.00 38 1007.0
20260504231701 21 0 1.6 14.5 0.00 0.00 0.00 37 1006.9
20260504231657 21 0 1.6 14.5 0.00 0.00 0.00 38 1007.0
20260504231520 21 360 0.0 9.7 0.00 0.00 0.00 37 1006.8
20260504231446 21 0 1.6 14.5 0.00 0.00 0.00 37 1007.0
20260504231347 21 0 0.0 14.5 0.00 0.00 0.00 37 1007.0
20260504231234 21 0 0.0 12.9 0.00 0.00 0.00 37 1006.9
20260504231146 21 0 1.6 12.9 0.00 0.00 0.00 37 1007.0
20260504231046 21 0 1.6 14.5 0.00 0.00 0.00 37 1007.0
20260504231020 21 360 0.0 14.5 0.00 0.00 0.00 37 1006.7
20260504230944 21 0 0.0 14.5 0.00 0.00 0.00 37 1006.9
20260504230845 21 0 0.0 14.5 0.00 0.00 0.00 37 1007.0
20260504230731 21 0 0.0 14.5 0.00 0.00 0.00 37 1007.0
20260504230645 21 0 0.0 14.5 0.00 0.00 0.00 37 1006.9
20260504230543 21 0 0.0 14.5 0.00 0.00 0.00 37 1006.9
20260504230520 21 360 4.8 14.5 0.00 0.00 0.00 37 1006.7
20260504230456 21 0 0.0 14.5 0.00 0.00 0.00 36 1006.9
20260504230451 21 0 0.0 14.5 0.00 0.00 0.00 37 1006.9
20260504230242 21 0 0.0 14.5 0.00 0.00 0.00 36 1006.9
20260504230232 21 0 0.0 14.5 0.00 0.00 0.00 36 1006.9
20260504230141 21 0 0.0 14.5 0.00 0.00 0.00 37 1006.9
20260504230041 21 0 0.0 8.0 0.00 0.00 0.00 37 1006.9
20260504230020 21 360 0.0 8.0 0.00 0.00 0.00 36 1006.7
20260504225940 21 0 0.0 8.0 0.00 0.00 0.00 36 1006.9
20260504225838 21 155 0.0 8.0 0.00 0.00 0.00 36 1006.9
20260504225739 21 194 0.0 8.0 0.00 0.00 0.00 37 1006.9
20260504225732 21 193 0.0 8.0 0.00 0.00 0.00 37 1006.9
20260504225637 21 203 0.0 8.0 0.00 0.00 0.00 36 1006.9
20260504225537 21 200 0.0 8.0 0.00 0.00 0.00 36 1006.9
20260504225520 21 177 0.0 8.0 0.00 0.00 0.00 36 1006.7
20260504225436 21 167 0.0 8.0 0.00 0.00 0.00 36 1006.9
20260504225350 21 213 0.0 8.0 0.00 0.00 0.00 36 1006.9
20260504225346 21 218 0.0 8.0 0.00 0.00 0.00 36 1006.9
20260504225230 21 223 0.0 8.0 0.00 0.00 0.00 36 1006.9
20260504225135 21 228 0.0 8.0 0.00 0.00 0.00 36 1006.9
20260504225057 21 194 0.0 8.0 0.00 0.00 0.00 36 1006.9
20260504225020 21 214 0.0 8.0 0.00 0.00 0.00 36 1006.7
20260504224943 21 188 0.0 8.0 0.00 0.00 0.00 36 1006.9
20260504224730 21 225 0.0 9.7 0.00 0.00 0.00 36 1006.8
20260504224646 21 231 0.0 9.7 0.00 0.00 0.00 36 1006.8
20260504224642 21 219 0.0 9.7 0.00 0.00 0.00 35 1006.8
20260504224520 21 193 0.0 9.7 0.00 0.00 0.00 36 1006.6
20260504224505 21 176 0.0 9.7 0.00 0.00 0.00 36 1006.8
20260504224500 21 176 0.0 9.7 0.00 0.00 0.00 35 1006.8
20260504224455 21 198 0.0 9.7 0.00 0.00 0.00 35 1006.8
20260504224337 21 176 0.0 9.7 0.00 0.00 0.00 35 1006.8
20260504224130 21 220 0.0 9.7 0.00 0.00 0.00 36 1006.8
20260504224113 21 197 0.0 11.3 0.00 0.00 0.00 35 1006.8
20260504224109 21 177 0.0 11.3 0.00 0.00 0.00 35 1006.9
20260504224105 21 187 0.0 11.3 0.00 0.00 0.00 36 1006.9
20260504224100 21 193 0.0 9.7 0.00 0.00 0.00 35 1006.8
20260504224035 21 194 0.0 9.7 0.00 0.00 0.00 35 1006.6
20260504223832 21 187 0.0 11.3 0.00 0.00 0.00 35 1006.9
20260504223626 21 209 0.0 11.3 0.00 0.00 0.00 35 1006.9
20260504223526 21 211 1.6 11.3 0.00 0.00 0.00 36 1006.9
20260504223520 21 180 6.4 11.3 0.00 0.00 0.00 36 1006.8
20260504223438 21 202 1.6 14.5 0.00 0.00 0.00 36 1007.0
20260504223434 21 224 1.6 11.3 0.00 0.00 0.00 36 1007.0
20260504223246 21 197 1.6 14.5 0.00 0.00 0.00 35 1007.0
20260504223241 21 226 1.6 14.5 0.00 0.00 0.00 35 1007.0